Time,TemperatureF,DewpointF,PressureIn,WindDirection,WindDirectionDegrees,WindSpeedMPH,WindSpeedGustMPH,Humidity,HourlyPrecipIn,Conditions,Clouds,dailyrainin,SoftwareType,DateUTC
2013-04-26 00:01:00,72.5,67.0,30.20,North,359,3.0,5.0,83,0.00,,,0.00,Wunderground v.1.15,2013-04-26 04:01:00,
2013-04-26 00:04:00,72.5,67.0,30.20,NE,45,2.0,5.0,83,0.00,,,0.00,Wunderground v.1.15,2013-04-26 04:04:00,
2013-04-26 00:05:00,72.5,67.0,30.20,North,360,4.0,5.0,83,0.00,,,0.00,Wunderground v.1.15,2013-04-26 04:05:00,
2013-04-26 00:06:00,72.6,67.1,30.20,NNE,25,3.0,5.0,83,0.00,,,0.00,Wunderground v.1.15,2013-04-26 04:06:00,
2013-04-26 00:10:00,72.5,67.0,30.19,NNE,32,4.0,4.0,83,0.00,,,0.00,Wunderground v.1.15,2013-04-26 04:10:00,
2013-04-26 00:11:00,72.5,67.0,30.19,NW,318,3.0,4.0,83,0.00,,,0.00,Wunderground v.1.15,2013-04-26 04:11:00,
2013-04-26 00:14:00,72.6,66.8,30.19,NNE,13,4.0,4.0,82,0.00,,,0.00,Wunderground v.1.15,2013-04-26 04:14:00,
2013-04-26 00:15:00,72.5,66.7,30.20,North,8,1.0,4.0,82,0.00,,,0.00,Wunderground v.1.15,2013-04-26 04:15:00,
2013-04-26 00:20:00,72.5,66.7,30.19,NNE,19,3.0,3.0,82,0.00,,,0.00,Wunderground v.1.15,2013-04-26 04:20:00,
2013-04-26 00:21:00,72.5,66.7,30.19,NW,318,2.0,3.0,82,0.00,,,0.00,Wunderground v.1.15,2013-04-26 04:21:00,
2013-04-26 00:23:00,72.5,66.7,30.19,NNE,13,3.0,3.0,82,0.00,,,0.00,Wunderground v.1.15,2013-04-26 04:23:00,
2013-04-26 00:24:00,72.5,66.7,30.19,NNE,33,4.0,4.0,82,0.00,,,0.00,Wunderground v.1.15,2013-04-26 04:24:00,
2013-04-26 00:26:00,72.4,66.6,30.19,NE,53,2.0,4.0,82,0.00,,,0.00,Wunderground v.1.15,2013-04-26 04:26:00,
2013-04-26 00:27:00,72.4,66.6,30.19,ENE,72,2.0,4.0,82,0.00,,,0.00,Wunderground v.1.15,2013-04-26 04:27:00,
2013-04-26 00:29:00,72.3,66.5,30.19,NNE,17,5.0,5.0,82,0.00,,,0.00,Wunderground v.1.15,2013-04-26 04:29:00,
2013-04-26 00:32:00,72.3,66.5,30.19,North,11,2.0,3.0,82,0.00,,,0.00,Wunderground v.1.15,2013-04-26 04:32:00,
2013-04-26 00:33:00,72.2,66.4,30.19,NE,51,3.0,3.0,82,0.00,,,0.00,Wunderground v.1.15,2013-04-26 04:33:00,
2013-04-26 00:37:00,72.1,66.3,30.19,NNE,19,5.0,5.0,82,0.00,,,0.00,Wunderground v.1.15,2013-04-26 04:37:00,
2013-04-26 00:39:00,72.1,66.3,30.19,NNE,15,3.0,5.0,82,0.00,,,0.00,Wunderground v.1.15,2013-04-26 04:39:00,
2013-04-26 00:40:00,72.0,66.2,30.19,North,9,4.0,4.0,82,0.00,,,0.00,Wunderground v.1.15,2013-04-26 04:40:00,
2013-04-26 00:41:00,72.0,66.2,30.18,NNE,31,4.0,4.0,82,0.00,,,0.00,Wunderground v.1.15,2013-04-26 04:41:00,
2013-04-26 00:44:00,72.0,66.2,30.18,NE,34,2.0,6.0,82,0.00,,,0.00,Wunderground v.1.15,2013-04-26 04:44:00,
2013-04-26 00:48:00,72.0,66.2,30.18,North,11,6.0,6.0,82,0.00,,,0.00,Wunderground v.1.15,2013-04-26 04:48:00,
2013-04-26 00:49:00,72.0,65.8,30.18,NNE,12,5.0,6.0,81,0.00,,,0.00,Wunderground v.1.15,2013-04-26 04:49:00,
2013-04-26 00:53:00,71.9,65.8,30.18,NE,34,5.0,5.0,81,0.00,,,0.00,Wunderground v.1.15,2013-04-26 04:53:00,
2013-04-26 00:55:00,71.9,65.8,30.18,North,11,4.0,5.0,81,0.00,,,0.00,Wunderground v.1.15,2013-04-26 04:55:00,
2013-04-26 00:56:00,71.9,65.8,30.18,North,4,8.0,8.0,81,0.00,,,0.00,Wunderground v.1.15,2013-04-26 04:56:00,
2013-04-26 00:57:00,71.8,65.7,30.18,NNE,19,3.0,8.0,81,0.00,,,0.00,Wunderground v.1.15,2013-04-26 04:57:00,
2013-04-26 01:00:00,71.8,65.7,30.18,North,356,7.0,7.0,81,0.00,,,0.00,Wunderground v.1.15,2013-04-26 05:00:00,
2013-04-26 01:03:00,71.8,65.7,30.18,NE,44,2.0,7.0,81,0.00,,,0.00,Wunderground v.1.15,2013-04-26 05:03:00,
2013-04-26 01:04:00,71.8,65.7,30.18,NNE,27,2.0,7.0,81,0.00,,,0.00,Wunderground v.1.15,2013-04-26 05:04:00,
2013-04-26 01:05:00,71.7,65.6,30.18,NE,55,5.0,7.0,81,0.00,,,0.00,Wunderground v.1.15,2013-04-26 05:05:00,
2013-04-26 01:06:00,71.7,65.6,30.18,NE,51,3.0,7.0,81,0.00,,,0.00,Wunderground v.1.15,2013-04-26 05:06:00,
2013-04-26 01:09:00,71.6,65.8,30.17,NE,46,3.0,7.0,82,0.00,,,0.00,Wunderground v.1.15,2013-04-26 05:09:00,
2013-04-26 01:11:00,71.5,65.7,30.17,NNE,28,4.0,4.0,82,0.00,,,0.00,Wunderground v.1.15,2013-04-26 05:11:00,
2013-04-26 01:14:00,71.4,65.6,30.18,North,4,4.0,4.0,82,0.00,,,0.00,Wunderground v.1.15,2013-04-26 05:14:00,
2013-04-26 01:19:00,71.2,65.4,30.17,NNE,13,4.0,4.0,82,0.00,,,0.00,Wunderground v.1.15,2013-04-26 05:19:00,
2013-04-26 01:20:00,71.2,65.4,30.17,NNE,33,3.0,3.0,82,0.00,,,0.00,Wunderground v.1.15,2013-04-26 05:20:00,
2013-04-26 01:23:00,71.1,65.3,30.17,NNE,33,2.0,4.0,82,0.00,,,0.00,Wunderground v.1.15,2013-04-26 05:23:00,
2013-04-26 01:24:00,71.0,65.6,30.17,ENE,72,2.0,4.0,83,0.00,,,0.00,Wunderground v.1.15,2013-04-26 05:24:00,
2013-04-26 01:26:00,71.0,65.6,30.17,NNE,19,2.0,4.0,83,0.00,,,0.00,Wunderground v.1.15,2013-04-26 05:26:00,
2013-04-26 01:27:00,70.9,65.5,30.17,ENE,65,2.0,4.0,83,0.00,,,0.00,Wunderground v.1.15,2013-04-26 05:27:00,
2013-04-26 01:30:00,70.8,65.4,30.17,NE,37,3.0,3.0,83,0.00,,,0.00,Wunderground v.1.15,2013-04-26 05:30:00,
2013-04-26 01:31:00,70.8,65.4,30.17,NE,55,2.0,3.0,83,0.00,,,0.00,Wunderground v.1.15,2013-04-26 05:31:00,
2013-04-26 01:33:00,70.7,65.3,30.17,ENE,61,2.0,3.0,83,0.00,,,0.00,Wunderground v.1.15,2013-04-26 05:33:00,
2013-04-26 01:34:00,70.7,65.3,30.17,NE,39,3.0,3.0,83,0.00,,,0.00,Wunderground v.1.15,2013-04-26 05:34:00,
2013-04-26 01:35:00,70.7,65.3,30.17,ENE,65,2.0,3.0,83,0.00,,,0.00,Wunderground v.1.15,2013-04-26 05:35:00,
2013-04-26 01:37:00,70.6,65.2,30.17,NE,36,2.0,3.0,83,0.00,,,0.00,Wunderground v.1.15,2013-04-26 05:37:00,
2013-04-26 01:41:00,70.5,65.4,30.17,NE,52,3.0,3.0,84,0.00,,,0.00,Wunderground v.1.15,2013-04-26 05:41:00,
2013-04-26 01:42:00,70.4,65.3,30.17,ENE,61,1.0,3.0,84,0.00,,,0.00,Wunderground v.1.15,2013-04-26 05:42:00,
2013-04-26 01:44:00,70.3,65.2,30.16,NNE,29,5.0,5.0,84,0.00,,,0.00,Wunderground v.1.15,2013-04-26 05:44:00,
2013-04-26 01:46:00,70.3,65.2,30.17,NE,41,3.0,5.0,84,0.00,,,0.00,Wunderground v.1.15,2013-04-26 05:46:00,
2013-04-26 01:47:00,70.3,65.2,30.16,ENE,72,2.0,5.0,84,0.00,,,0.00,Wunderground v.1.15,2013-04-26 05:47:00,
2013-04-26 01:49:00,70.3,65.2,30.16,NE,40,2.0,5.0,84,0.00,,,0.00,Wunderground v.1.15,2013-04-26 05:49:00,
2013-04-26 01:52:00,70.3,65.2,30.16,ENE,65,3.0,3.0,84,0.00,,,0.00,Wunderground v.1.15,2013-04-26 05:52:00,
2013-04-26 01:53:00,70.2,65.1,30.16,NE,55,2.0,3.0,84,0.00,,,0.00,Wunderground v.1.15,2013-04-26 05:53:00,
2013-04-26 01:54:00,70.2,65.1,30.16,ENE,69,2.0,3.0,84,0.00,,,0.00,Wunderground v.1.15,2013-04-26 05:54:00,
2013-04-26 01:59:00,70.1,65.0,30.16,ENE,70,1.0,4.0,84,0.00,,,0.00,Wunderground v.1.15,2013-04-26 05:59:00,
2013-04-26 02:00:00,70.1,65.0,30.16,ENE,64,2.0,2.0,84,0.00,,,0.00,Wunderground v.1.15,2013-04-26 06:00:00,
2013-04-26 02:01:00,70.1,65.0,30.16,ENE,64,2.0,2.0,84,0.00,,,0.00,Wunderground v.1.15,2013-04-26 06:01:00,
2013-04-26 02:04:00,70.1,65.0,30.16,NE,49,4.0,5.0,84,0.00,,,0.00,Wunderground v.1.15,2013-04-26 06:04:00,
2013-04-26 02:06:00,70.1,65.0,30.16,ENE,70,3.0,5.0,84,0.00,,,0.00,Wunderground v.1.15,2013-04-26 06:06:00,
2013-04-26 02:09:00,70.0,64.9,30.16,ENE,59,2.0,6.0,84,0.00,,,0.00,Wunderground v.1.15,2013-04-26 06:09:00,
2013-04-26 02:11:00,70.0,64.9,30.16,ENE,67,2.0,4.0,84,0.00,,,0.00,Wunderground v.1.15,2013-04-26 06:11:00,
2013-04-26 02:14:00,70.0,64.9,30.16,East,82,3.0,5.0,84,0.00,,,0.00,Wunderground v.1.15,2013-04-26 06:14:00,
2013-04-26 02:15:00,69.9,64.8,30.16,ENE,60,2.0,5.0,84,0.00,,,0.00,Wunderground v.1.15,2013-04-26 06:15:00,
2013-04-26 02:16:00,69.9,64.8,30.16,East,85,3.0,5.0,84,0.00,,,0.00,Wunderground v.1.15,2013-04-26 06:16:00,
2013-04-26 02:19:00,69.9,64.8,30.16,East,79,2.0,5.0,84,0.00,,,0.00,Wunderground v.1.15,2013-04-26 06:19:00,
2013-04-26 02:20:00,69.9,64.8,30.16,ENE,63,4.0,4.0,84,0.00,,,0.00,Wunderground v.1.15,2013-04-26 06:20:00,
2013-04-26 02:21:00,69.9,64.8,30.16,ENE,75,3.0,4.0,84,0.00,,,0.00,Wunderground v.1.15,2013-04-26 06:21:00,
2013-04-26 02:24:00,69.8,65.1,30.16,East,82,4.0,5.0,85,0.00,,,0.00,Wunderground v.1.15,2013-04-26 06:24:00,
2013-04-26 02:25:00,69.8,65.1,30.16,ENE,75,2.0,5.0,85,0.00,,,0.00,Wunderground v.1.15,2013-04-26 06:25:00,
2013-04-26 02:26:00,69.8,65.1,30.16,ENE,61,3.0,5.0,85,0.00,,,0.00,Wunderground v.1.15,2013-04-26 06:26:00,
2013-04-26 02:27:00,69.8,65.1,30.16,ENE,76,2.0,5.0,85,0.00,,,0.00,Wunderground v.1.15,2013-04-26 06:27:00,
2013-04-26 02:30:00,69.8,65.1,30.16,ENE,75,2.0,3.0,85,0.00,,,0.00,Wunderground v.1.15,2013-04-26 06:30:00,
2013-04-26 02:31:00,69.7,65.0,30.16,East,87,2.0,3.0,85,0.00,,,0.00,Wunderground v.1.15,2013-04-26 06:31:00,
2013-04-26 02:32:00,69.7,65.0,30.16,East,86,1.0,3.0,85,0.00,,,0.00,Wunderground v.1.15,2013-04-26 06:32:00,
2013-04-26 02:35:00,69.6,64.9,30.16,ENE,74,2.0,4.0,85,0.00,,,0.00,Wunderground v.1.15,2013-04-26 06:35:00,
2013-04-26 02:36:00,69.6,64.9,30.16,NE,55,3.0,4.0,85,0.00,,,0.00,Wunderground v.1.15,2013-04-26 06:36:00,
2013-04-26 02:37:00,69.6,64.9,30.16,ENE,70,4.0,4.0,85,0.00,,,0.00,Wunderground v.1.15,2013-04-26 06:37:00,
2013-04-26 02:40:00,69.5,64.8,30.15,ENE,63,3.0,4.0,85,0.00,,,0.00,Wunderground v.1.15,2013-04-26 06:40:00,
2013-04-26 02:41:00,69.5,64.8,30.15,ENE,63,3.0,4.0,85,0.00,,,0.00,Wunderground v.1.15,2013-04-26 06:41:00,
2013-04-26 02:42:00,69.5,64.8,30.15,ENE,69,2.0,4.0,85,0.00,,,0.00,Wunderground v.1.15,2013-04-26 06:42:00,
2013-04-26 02:46:00,69.4,64.7,30.15,East,85,3.0,4.0,85,0.00,,,0.00,Wunderground v.1.15,2013-04-26 06:46:00,
2013-04-26 02:47:00,69.3,64.6,30.15,ENE,72,2.0,4.0,85,0.00,,,0.00,Wunderground v.1.15,2013-04-26 06:47:00,
2013-04-26 02:51:00,69.2,64.5,30.15,East,79,2.0,4.0,85,0.00,,,0.00,Wunderground v.1.15,2013-04-26 06:51:00,
2013-04-26 02:52:00,69.2,64.5,30.15,ENE,68,3.0,4.0,85,0.00,,,0.00,Wunderground v.1.15,2013-04-26 06:52:00,
2013-04-26 02:56:00,69.1,64.4,30.15,ENE,69,2.0,4.0,85,0.00,,,0.00,Wunderground v.1.15,2013-04-26 06:56:00,
2013-04-26 02:57:00,69.1,64.4,30.15,ENE,78,2.0,4.0,85,0.00,,,0.00,Wunderground v.1.15,2013-04-26 06:57:00,
2013-04-26 02:58:00,69.1,64.4,30.15,ENE,78,2.0,4.0,85,0.00,,,0.00,Wunderground v.1.15,2013-04-26 06:58:00,
2013-04-26 03:01:00,69.0,64.3,30.15,ENE,72,3.0,4.0,85,0.00,,,0.00,Wunderground v.1.15,2013-04-26 07:01:00,
2013-04-26 03:02:00,68.9,64.2,30.15,East,79,1.0,4.0,85,0.00,,,0.00,Wunderground v.1.15,2013-04-26 07:02:00,
2013-04-26 03:03:00,68.9,64.2,30.15,ENE,78,1.0,4.0,85,0.00,,,0.00,Wunderground v.1.15,2013-04-26 07:03:00,
2013-04-26 03:07:00,68.8,64.1,30.15,East,84,1.0,4.0,85,0.00,,,0.00,Wunderground v.1.15,2013-04-26 07:07:00,
2013-04-26 03:08:00,68.8,64.1,30.15,ENE,75,2.0,4.0,85,0.00,,,0.00,Wunderground v.1.15,2013-04-26 07:08:00,
2013-04-26 03:12:00,68.8,64.1,30.15,East,82,1.0,3.0,85,0.00,,,0.00,Wunderground v.1.15,2013-04-26 07:12:00,
2013-04-26 03:13:00,68.8,64.1,30.14,East,91,1.0,3.0,85,0.00,,,0.00,Wunderground v.1.15,2013-04-26 07:13:00,
2013-04-26 03:17:00,68.7,64.0,30.15,East,79,2.0,3.0,85,0.00,,,0.00,Wunderground v.1.15,2013-04-26 07:17:00,
2013-04-26 03:18:00,68.7,64.0,30.15,ENE,78,2.0,3.0,85,0.00,,,0.00,Wunderground v.1.15,2013-04-26 07:18:00,
2013-04-26 03:22:00,68.6,63.9,30.15,ENE,69,2.0,3.0,85,0.00,,,0.00,Wunderground v.1.15,2013-04-26 07:22:00,
2013-04-26 03:23:00,68.6,63.9,30.15,ENE,71,1.0,3.0,85,0.00,,,0.00,Wunderground v.1.15,2013-04-26 07:23:00,
2013-04-26 03:25:00,68.6,63.9,30.15,ENE,70,1.0,3.0,85,0.00,,,0.00,Wunderground v.1.15,2013-04-26 07:25:00,
2013-04-26 03:27:00,68.5,63.8,30.15,ENE,69,1.0,3.0,85,0.00,,,0.00,Wunderground v.1.15,2013-04-26 07:27:00,
2013-04-26 03:28:00,68.5,63.8,30.15,ENE,70,1.0,3.0,85,0.00,,,0.00,Wunderground v.1.15,2013-04-26 07:28:00,
2013-04-26 03:30:00,68.5,63.8,30.15,ENE,71,1.0,1.0,85,0.00,,,0.00,Wunderground v.1.15,2013-04-26 07:30:00,
2013-04-26 03:32:00,68.4,63.7,30.15,ENE,70,1.0,2.0,85,0.00,,,0.00,Wunderground v.1.15,2013-04-26 07:32:00,
2013-04-26 03:33:00,68.4,63.7,30.15,ENE,71,2.0,2.0,85,0.00,,,0.00,Wunderground v.1.15,2013-04-26 07:33:00,
2013-04-26 03:34:00,68.3,63.9,30.15,ENE,70,1.0,2.0,86,0.00,,,0.00,Wunderground v.1.15,2013-04-26 07:34:00,
2013-04-26 03:35:00,68.3,63.9,30.15,ENE,71,2.0,2.0,86,0.00,,,0.00,Wunderground v.1.15,2013-04-26 07:35:00,
2013-04-26 03:37:00,68.2,63.9,30.14,ENE,72,1.0,2.0,86,0.00,,,0.00,Wunderground v.1.15,2013-04-26 07:37:00,
2013-04-26 03:38:00,68.2,63.9,30.14,ENE,72,2.0,2.0,86,0.00,,,0.00,Wunderground v.1.15,2013-04-26 07:38:00,
2013-04-26 03:39:00,68.1,63.8,30.14,ENE,72,2.0,2.0,86,0.00,,,0.00,Wunderground v.1.15,2013-04-26 07:39:00,
2013-04-26 03:40:00,68.1,63.8,30.14,ENE,72,1.0,1.0,86,0.00,,,0.00,Wunderground v.1.15,2013-04-26 07:40:00,
2013-04-26 03:43:00,68.0,63.7,30.14,ENE,72,1.0,1.0,86,0.00,,,0.00,Wunderground v.1.15,2013-04-26 07:43:00,
2013-04-26 03:44:00,68.0,63.7,30.14,ENE,72,1.0,2.0,86,0.00,,,0.00,Wunderground v.1.15,2013-04-26 07:44:00,
2013-04-26 03:45:00,68.0,63.7,30.14,ENE,72,2.0,2.0,86,0.00,,,0.00,Wunderground v.1.15,2013-04-26 07:45:00,
2013-04-26 03:48:00,67.9,63.6,30.14,ENE,72,1.0,2.0,86,0.00,,,0.00,Wunderground v.1.15,2013-04-26 07:48:00,
2013-04-26 03:49:00,67.9,63.6,30.14,ENE,72,1.0,2.0,86,0.00,,,0.00,Wunderground v.1.15,2013-04-26 07:49:00,
2013-04-26 03:50:00,67.9,63.6,30.14,ENE,72,1.0,1.0,86,0.00,,,0.00,Wunderground v.1.15,2013-04-26 07:50:00,
2013-04-26 03:53:00,67.8,63.5,30.14,ENE,72,1.0,2.0,86,0.00,,,0.00,Wunderground v.1.15,2013-04-26 07:53:00,
2013-04-26 03:54:00,67.8,63.5,30.14,ENE,72,1.0,2.0,86,0.00,,,0.00,Wunderground v.1.15,2013-04-26 07:54:00,
2013-04-26 03:55:00,67.8,63.5,30.14,ENE,72,1.0,2.0,86,0.00,,,0.00,Wunderground v.1.15,2013-04-26 07:55:00,
2013-04-26 03:58:00,67.7,63.4,30.14,ENE,71,1.0,2.0,86,0.00,,,0.00,Wunderground v.1.15,2013-04-26 07:58:00,
2013-04-26 03:59:00,67.7,63.4,30.14,ENE,71,1.0,2.0,86,0.00,,,0.00,Wunderground v.1.15,2013-04-26 07:59:00,
2013-04-26 04:00:00,67.6,63.3,30.14,ENE,71,1.0,1.0,86,0.00,,,0.00,Wunderground v.1.15,2013-04-26 08:00:00,
2013-04-26 04:03:00,67.5,63.2,30.14,ENE,70,1.0,1.0,86,0.00,,,0.00,Wunderground v.1.15,2013-04-26 08:03:00,
2013-04-26 04:04:00,67.5,63.2,30.14,ENE,71,1.0,1.0,86,0.00,,,0.00,Wunderground v.1.15,2013-04-26 08:04:00,
2013-04-26 04:05:00,67.5,63.5,30.14,ENE,71,1.0,2.0,87,0.00,,,0.00,Wunderground v.1.15,2013-04-26 08:05:00,
2013-04-26 04:08:00,67.4,63.4,30.14,ENE,71,1.0,2.0,87,0.00,,,0.00,Wunderground v.1.15,2013-04-26 08:08:00,
2013-04-26 04:09:00,67.3,63.3,30.14,ENE,71,1.0,2.0,87,0.00,,,0.00,Wunderground v.1.15,2013-04-26 08:09:00,
2013-04-26 04:10:00,67.3,63.3,30.14,ENE,71,0.0,1.0,87,0.00,,,0.00,Wunderground v.1.15,2013-04-26 08:10:00,
2013-04-26 04:13:00,67.3,63.3,30.14,ENE,72,1.0,2.0,87,0.00,,,0.00,Wunderground v.1.15,2013-04-26 08:13:00,
2013-04-26 04:14:00,67.2,63.2,30.14,ENE,72,1.0,2.0,87,0.00,,,0.00,Wunderground v.1.15,2013-04-26 08:14:00,
2013-04-26 04:15:00,67.2,63.2,30.14,ENE,72,1.0,2.0,87,0.00,,,0.00,Wunderground v.1.15,2013-04-26 08:15:00,
2013-04-26 04:18:00,67.1,63.1,30.14,ENE,72,0.0,2.0,87,0.00,,,0.00,Wunderground v.1.15,2013-04-26 08:18:00,
2013-04-26 04:19:00,67.1,63.1,30.14,ENE,72,1.0,2.0,87,0.00,,,0.00,Wunderground v.1.15,2013-04-26 08:19:00,
2013-04-26 04:20:00,67.1,63.1,30.14,ENE,72,0.0,1.0,87,0.00,,,0.00,Wunderground v.1.15,2013-04-26 08:20:00,
2013-04-26 04:21:00,67.1,63.1,30.14,ENE,72,0.0,1.0,87,0.00,,,0.00,Wunderground v.1.15,2013-04-26 08:21:00,
2013-04-26 04:23:00,67.0,63.0,30.14,ENE,72,0.0,1.0,87,0.00,,,0.00,Wunderground v.1.15,2013-04-26 08:23:00,
2013-04-26 04:24:00,67.0,63.0,30.14,ENE,72,0.0,1.0,87,0.00,,,0.00,Wunderground v.1.15,2013-04-26 08:24:00,
2013-04-26 04:25:00,66.9,62.9,30.14,ENE,72,0.0,1.0,87,0.00,,,0.00,Wunderground v.1.15,2013-04-26 08:25:00,
2013-04-26 04:26:00,66.9,62.9,30.14,ENE,72,0.0,1.0,87,0.00,,,0.00,Wunderground v.1.15,2013-04-26 08:26:00,
2013-04-26 04:29:00,66.8,62.8,30.14,ENE,72,1.0,1.0,87,0.00,,,0.00,Wunderground v.1.15,2013-04-26 08:29:00,
2013-04-26 04:30:00,66.8,62.8,30.14,ENE,72,0.0,1.0,87,0.00,,,0.00,Wunderground v.1.15,2013-04-26 08:30:00,
2013-04-26 04:31:00,66.7,62.7,30.14,ENE,72,0.0,1.0,87,0.00,,,0.00,Wunderground v.1.15,2013-04-26 08:31:00,
2013-04-26 04:34:00,66.7,62.7,30.14,ENE,72,1.0,1.0,87,0.00,,,0.00,Wunderground v.1.15,2013-04-26 08:34:00,
2013-04-26 04:36:00,66.7,63.0,30.14,ENE,72,0.0,1.0,88,0.00,,,0.00,Wunderground v.1.15,2013-04-26 08:36:00,
2013-04-26 04:37:00,66.7,63.0,30.14,ENE,72,1.0,1.0,88,0.00,,,0.00,Wunderground v.1.15,2013-04-26 08:37:00,
2013-04-26 04:39:00,66.6,62.9,30.14,ENE,72,0.0,1.0,88,0.00,,,0.00,Wunderground v.1.15,2013-04-26 08:39:00,
2013-04-26 04:41:00,66.6,62.9,30.14,ENE,72,1.0,1.0,88,0.00,,,0.00,Wunderground v.1.15,2013-04-26 08:41:00,
2013-04-26 04:42:00,66.6,62.9,30.14,ENE,72,1.0,1.0,88,0.00,,,0.00,Wunderground v.1.15,2013-04-26 08:42:00,
2013-04-26 04:44:00,66.5,62.8,30.14,ENE,72,2.0,2.0,88,0.00,,,0.00,Wunderground v.1.15,2013-04-26 08:44:00,
2013-04-26 04:46:00,66.4,62.7,30.14,ENE,72,1.0,2.0,88,0.00,,,0.00,Wunderground v.1.15,2013-04-26 08:46:00,
2013-04-26 04:47:00,66.4,62.7,30.14,ENE,72,1.0,2.0,88,0.00,,,0.00,Wunderground v.1.15,2013-04-26 08:47:00,
2013-04-26 04:49:00,66.2,62.9,30.14,ENE,72,1.0,2.0,89,0.00,,,0.00,Wunderground v.1.15,2013-04-26 08:49:00,
2013-04-26 04:50:00,66.3,63.0,30.14,ENE,72,1.0,1.0,89,0.00,,,0.00,Wunderground v.1.15,2013-04-26 08:50:00,
2013-04-26 04:51:00,66.2,62.9,30.14,ENE,72,1.0,2.0,89,0.00,,,0.00,Wunderground v.1.15,2013-04-26 08:51:00,
2013-04-26 04:52:00,66.2,62.9,30.14,ENE,72,1.0,2.0,89,0.00,,,0.00,Wunderground v.1.15,2013-04-26 08:52:00,
2013-04-26 04:55:00,66.1,62.8,30.14,ENE,72,1.0,2.0,89,0.00,,,0.00,Wunderground v.1.15,2013-04-26 08:55:00,
2013-04-26 04:56:00,66.0,62.7,30.14,ENE,72,0.0,2.0,89,0.00,,,0.00,Wunderground v.1.15,2013-04-26 08:56:00,
2013-04-26 04:57:00,66.0,62.7,30.14,ENE,72,0.0,2.0,89,0.00,,,0.00,Wunderground v.1.15,2013-04-26 08:57:00,
2013-04-26 05:00:00,65.9,62.6,30.14,ENE,72,1.0,1.0,89,0.00,,,0.00,Wunderground v.1.15,2013-04-26 09:00:00,
2013-04-26 05:02:00,65.9,62.6,30.14,ENE,72,1.0,1.0,89,0.00,,,0.00,Wunderground v.1.15,2013-04-26 09:02:00,
2013-04-26 05:05:00,65.8,62.8,30.14,ENE,72,0.0,2.0,90,0.00,,,0.00,Wunderground v.1.15,2013-04-26 09:05:00,
2013-04-26 05:07:00,65.7,62.7,30.14,ENE,72,1.0,2.0,90,0.00,,,0.00,Wunderground v.1.15,2013-04-26 09:07:00,
2013-04-26 05:08:00,65.7,62.7,30.14,ENE,72,1.0,2.0,90,0.00,,,0.00,Wunderground v.1.15,2013-04-26 09:08:00,
2013-04-26 05:10:00,65.6,62.6,30.14,ENE,72,1.0,1.0,90,0.00,,,0.00,Wunderground v.1.15,2013-04-26 09:10:00,
2013-04-26 05:12:00,65.6,62.6,30.14,ENE,72,0.0,1.0,90,0.00,,,0.00,Wunderground v.1.15,2013-04-26 09:12:00,
2013-04-26 05:13:00,65.5,62.5,30.14,ENE,72,0.0,1.0,90,0.00,,,0.00,Wunderground v.1.15,2013-04-26 09:13:00,
2013-04-26 05:15:00,65.5,62.5,30.14,ENE,72,1.0,2.0,90,0.00,,,0.00,Wunderground v.1.15,2013-04-26 09:15:00,
2013-04-26 05:16:00,65.5,62.5,30.14,ENE,72,1.0,2.0,90,0.00,,,0.00,Wunderground v.1.15,2013-04-26 09:16:00,
2013-04-26 05:17:00,65.4,62.4,30.14,ENE,72,1.0,2.0,90,0.00,,,0.00,Wunderground v.1.15,2013-04-26 09:17:00,
2013-04-26 05:18:00,65.4,62.4,30.14,ENE,72,1.0,2.0,90,0.00,,,0.00,Wunderground v.1.15,2013-04-26 09:18:00,
2013-04-26 05:20:00,65.4,62.4,30.14,ENE,72,1.0,1.0,90,0.00,,,0.00,Wunderground v.1.15,2013-04-26 09:20:00,
2013-04-26 05:21:00,65.4,62.4,30.14,ENE,72,0.0,1.0,90,0.00,,,0.00,Wunderground v.1.15,2013-04-26 09:21:00,
2013-04-26 05:22:00,65.4,62.7,30.14,ENE,72,1.0,2.0,91,0.00,,,0.00,Wunderground v.1.15,2013-04-26 09:22:00,
2013-04-26 05:23:00,65.4,62.7,30.14,ENE,72,0.0,2.0,91,0.00,,,0.00,Wunderground v.1.15,2013-04-26 09:23:00,
2013-04-26 05:25:00,65.4,62.7,30.14,ENE,72,1.0,2.0,91,0.00,,,0.00,Wunderground v.1.15,2013-04-26 09:25:00,
2013-04-26 05:26:00,65.4,62.4,30.14,ENE,72,1.0,2.0,90,0.00,,,0.00,Wunderground v.1.15,2013-04-26 09:26:00,
2013-04-26 05:28:00,65.3,62.6,30.14,ENE,72,0.0,2.0,91,0.00,,,0.00,Wunderground v.1.15,2013-04-26 09:28:00,
2013-04-26 05:30:00,65.2,62.2,30.14,ENE,72,0.0,1.0,90,0.00,,,0.00,Wunderground v.1.15,2013-04-26 09:30:00,
2013-04-26 05:31:00,65.2,62.2,30.14,ENE,72,0.0,1.0,90,0.00,,,0.00,Wunderground v.1.15,2013-04-26 09:31:00,
2013-04-26 05:33:00,65.1,62.4,30.14,ENE,72,0.0,1.0,91,0.00,,,0.00,Wunderground v.1.15,2013-04-26 09:33:00,
2013-04-26 05:35:00,65.1,62.4,30.14,ENE,72,0.0,1.0,91,0.00,,,0.00,Wunderground v.1.15,2013-04-26 09:35:00,
2013-04-26 05:36:00,65.1,62.4,30.14,ENE,72,0.0,1.0,91,0.00,,,0.00,Wunderground v.1.15,2013-04-26 09:36:00,
2013-04-26 05:38:00,65.0,62.3,30.14,ENE,72,0.0,1.0,91,0.00,,,0.00,Wunderground v.1.15,2013-04-26 09:38:00,
2013-04-26 05:40:00,65.0,62.3,30.14,ENE,72,0.0,0.0,91,0.00,,,0.00,Wunderground v.1.15,2013-04-26 09:40:00,
2013-04-26 05:41:00,64.9,62.2,30.14,ENE,72,0.0,0.0,91,0.00,,,0.00,Wunderground v.1.15,2013-04-26 09:41:00,
2013-04-26 05:43:00,64.9,62.2,30.14,ENE,72,0.0,1.0,91,0.00,,,0.00,Wunderground v.1.15,2013-04-26 09:43:00,
2013-04-26 05:45:00,64.8,62.1,30.14,ENE,72,0.0,1.0,91,0.00,,,0.00,Wunderground v.1.15,2013-04-26 09:45:00,
2013-04-26 05:46:00,64.8,62.1,30.14,ENE,72,0.0,1.0,91,0.00,,,0.00,Wunderground v.1.15,2013-04-26 09:46:00,
2013-04-26 05:48:00,64.8,62.1,30.14,ENE,72,0.0,1.0,91,0.00,,,0.00,Wunderground v.1.15,2013-04-26 09:48:00,
2013-04-26 05:49:00,64.7,62.0,30.14,ENE,72,0.0,1.0,91,0.00,,,0.00,Wunderground v.1.15,2013-04-26 09:49:00,
2013-04-26 05:51:00,64.7,62.0,30.14,ENE,72,0.0,0.0,91,0.00,,,0.00,Wunderground v.1.15,2013-04-26 09:51:00,
2013-04-26 05:53:00,64.7,62.0,30.14,ENE,72,0.0,1.0,91,0.00,,,0.00,Wunderground v.1.15,2013-04-26 09:53:00,
2013-04-26 05:54:00,64.7,62.0,30.14,ENE,72,1.0,1.0,91,0.00,,,0.00,Wunderground v.1.15,2013-04-26 09:54:00,
2013-04-26 05:56:00,64.8,62.4,30.14,ENE,72,1.0,1.0,92,0.00,,,0.00,Wunderground v.1.15,2013-04-26 09:56:00,
2013-04-26 05:57:00,64.8,62.4,30.14,ENE,72,1.0,1.0,92,0.00,,,0.00,Wunderground v.1.15,2013-04-26 09:57:00,
2013-04-26 05:59:00,64.8,62.4,30.14,East,86,1.0,1.0,92,0.00,,,0.00,Wunderground v.1.15,2013-04-26 09:59:00,
2013-04-26 06:02:00,64.8,62.4,30.15,East,96,1.0,1.0,92,0.00,,,0.00,Wunderground v.1.15,2013-04-26 10:02:00,
2013-04-26 06:04:00,64.7,62.3,30.15,East,95,1.0,1.0,92,0.00,,,0.00,Wunderground v.1.15,2013-04-26 10:04:00,
2013-04-26 06:07:00,64.7,62.3,30.15,East,95,1.0,1.0,92,0.00,,,0.00,Wunderground v.1.15,2013-04-26 10:07:00,
2013-04-26 06:09:00,64.8,62.4,30.15,East,94,1.0,1.0,92,0.00,,,0.00,Wunderground v.1.15,2013-04-26 10:09:00,
2013-04-26 06:12:00,64.8,62.4,30.15,East,94,1.0,1.0,92,0.00,,,0.00,Wunderground v.1.15,2013-04-26 10:12:00,
2013-04-26 06:14:00,64.8,62.4,30.15,East,95,1.0,1.0,92,0.00,,,0.00,Wunderground v.1.15,2013-04-26 10:14:00,
2013-04-26 06:17:00,64.8,62.4,30.15,East,94,1.0,1.0,92,0.00,,,0.00,Wunderground v.1.15,2013-04-26 10:17:00,
2013-04-26 06:19:00,64.8,62.4,30.15,East,95,1.0,1.0,92,0.00,,,0.00,Wunderground v.1.15,2013-04-26 10:19:00,
2013-04-26 06:22:00,64.7,62.0,30.15,East,94,1.0,1.0,91,0.00,,,0.00,Wunderground v.1.15,2013-04-26 10:22:00,
2013-04-26 06:23:00,64.7,62.0,30.15,East,95,1.0,1.0,91,0.00,,,0.00,Wunderground v.1.15,2013-04-26 10:23:00,
2013-04-26 06:24:00,64.7,62.0,30.15,East,94,1.0,1.0,91,0.00,,,0.00,Wunderground v.1.15,2013-04-26 10:24:00,
2013-04-26 06:27:00,64.7,62.3,30.15,East,91,1.0,2.0,92,0.00,,,0.00,Wunderground v.1.15,2013-04-26 10:27:00,
2013-04-26 06:28:00,64.7,62.3,30.15,East,91,1.0,2.0,92,0.00,,,0.00,Wunderground v.1.15,2013-04-26 10:28:00,
2013-04-26 06:29:00,64.7,62.3,30.15,East,91,1.0,2.0,92,0.00,,,0.00,Wunderground v.1.15,2013-04-26 10:29:00,
2013-04-26 06:32:00,64.7,62.3,30.15,East,91,1.0,1.0,92,0.00,,,0.00,Wunderground v.1.15,2013-04-26 10:32:00,
2013-04-26 06:33:00,64.7,62.3,30.16,East,91,1.0,1.0,92,0.00,,,0.00,Wunderground v.1.15,2013-04-26 10:33:00,
2013-04-26 06:34:00,64.7,62.3,30.15,East,91,1.0,1.0,92,0.00,,,0.00,Wunderground v.1.15,2013-04-26 10:34:00,
2013-04-26 06:38:00,64.7,62.3,30.15,East,91,1.0,1.0,92,0.00,,,0.00,Wunderground v.1.15,2013-04-26 10:38:00,
2013-04-26 06:39:00,64.7,62.3,30.16,East,91,1.0,1.0,92,0.00,,,0.00,Wunderground v.1.15,2013-04-26 10:39:00,
2013-04-26 06:40:00,64.7,62.3,30.15,East,91,1.0,1.0,92,0.00,,,0.00,Wunderground v.1.15,2013-04-26 10:40:00,
2013-04-26 06:43:00,64.7,62.3,30.16,East,92,1.0,1.0,92,0.00,,,0.00,Wunderground v.1.15,2013-04-26 10:43:00,
2013-04-26 06:44:00,64.7,62.3,30.16,East,92,0.0,1.0,92,0.00,,,0.00,Wunderground v.1.15,2013-04-26 10:44:00,
2013-04-26 06:45:00,64.7,62.3,30.16,East,91,0.0,1.0,92,0.00,,,0.00,Wunderground v.1.15,2013-04-26 10:45:00,
2013-04-26 06:48:00,64.7,62.3,30.16,East,91,0.0,1.0,92,0.00,,,0.00,Wunderground v.1.15,2013-04-26 10:48:00,
2013-04-26 06:49:00,64.6,62.2,30.16,East,91,1.0,1.0,92,0.00,,,0.00,Wunderground v.1.15,2013-04-26 10:49:00,
2013-04-26 06:50:00,64.7,62.3,30.16,East,91,1.0,1.0,92,0.00,,,0.00,Wunderground v.1.15,2013-04-26 10:50:00,
2013-04-26 06:53:00,64.6,62.2,30.16,East,80,2.0,2.0,92,0.00,,,0.00,Wunderground v.1.15,2013-04-26 10:53:00,
2013-04-26 06:54:00,64.6,62.2,30.16,East,79,1.0,2.0,92,0.00,,,0.00,Wunderground v.1.15,2013-04-26 10:54:00,
2013-04-26 06:55:00,64.6,62.2,30.16,East,79,2.0,2.0,92,0.00,,,0.00,Wunderground v.1.15,2013-04-26 10:55:00,
2013-04-26 06:58:00,64.6,62.2,30.16,East,79,1.0,2.0,92,0.00,,,0.00,Wunderground v.1.15,2013-04-26 10:58:00,
2013-04-26 06:59:00,64.6,62.2,30.16,East,79,0.0,2.0,92,0.00,,,0.00,Wunderground v.1.15,2013-04-26 10:59:00,
2013-04-26 07:00:00,64.6,62.2,30.16,East,79,1.0,1.0,92,0.00,,,0.00,Wunderground v.1.15,2013-04-26 11:00:00,
2013-04-26 07:03:00,64.6,62.2,30.16,ENE,78,1.0,1.0,92,0.00,,,0.00,Wunderground v.1.15,2013-04-26 11:03:00,
2013-04-26 07:04:00,64.6,62.2,30.16,ENE,78,1.0,1.0,92,0.00,,,0.00,Wunderground v.1.15,2013-04-26 11:04:00,
2013-04-26 07:05:00,64.6,62.2,30.16,ENE,77,1.0,1.0,92,0.00,,,0.00,Wunderground v.1.15,2013-04-26 11:05:00,
2013-04-26 07:08:00,64.7,62.3,30.17,ENE,78,1.0,1.0,92,0.00,,,0.00,Wunderground v.1.15,2013-04-26 11:08:00,
2013-04-26 07:09:00,64.7,62.3,30.17,ENE,77,1.0,1.0,92,0.00,,,0.00,Wunderground v.1.15,2013-04-26 11:09:00,
2013-04-26 07:10:00,64.7,62.3,30.17,ENE,78,1.0,1.0,92,0.00,,,0.00,Wunderground v.1.15,2013-04-26 11:10:00,
2013-04-26 07:13:00,64.7,62.3,30.17,ENE,78,1.0,2.0,92,0.00,,,0.00,Wunderground v.1.15,2013-04-26 11:13:00,
2013-04-26 07:14:00,64.7,62.3,30.17,ENE,78,1.0,2.0,92,0.00,,,0.00,Wunderground v.1.15,2013-04-26 11:14:00,
2013-04-26 07:15:00,64.7,62.3,30.17,ENE,78,2.0,2.0,92,0.00,,,0.00,Wunderground v.1.15,2013-04-26 11:15:00,
2013-04-26 07:16:00,64.7,62.3,30.17,ENE,78,1.0,2.0,92,0.00,,,0.00,Wunderground v.1.15,2013-04-26 11:16:00,
2013-04-26 07:18:00,64.8,62.4,30.17,ENE,78,1.0,2.0,92,0.00,,,0.00,Wunderground v.1.15,2013-04-26 11:18:00,
2013-04-26 07:20:00,64.8,62.4,30.17,ENE,78,1.0,2.0,92,0.00,,,0.00,Wunderground v.1.15,2013-04-26 11:20:00,
2013-04-26 07:21:00,64.9,62.5,30.17,ENE,69,2.0,2.0,92,0.00,,,0.00,Wunderground v.1.15,2013-04-26 11:21:00,
2013-04-26 07:24:00,65.0,62.6,30.17,ENE,72,2.0,2.0,92,0.00,,,0.00,Wunderground v.1.15,2013-04-26 11:24:00,
2013-04-26 07:25:00,65.1,62.7,30.17,ENE,72,1.0,2.0,92,0.00,,,0.00,Wunderground v.1.15,2013-04-26 11:25:00,
2013-04-26 07:26:00,65.1,62.7,30.17,ENE,72,2.0,2.0,92,0.00,,,0.00,Wunderground v.1.15,2013-04-26 11:26:00,
2013-04-26 07:29:00,65.4,63.0,30.17,ENE,71,1.0,2.0,92,0.00,,,0.00,Wunderground v.1.15,2013-04-26 11:29:00,
2013-04-26 07:30:00,65.4,63.0,30.17,ENE,72,2.0,2.0,92,0.00,,,0.00,Wunderground v.1.15,2013-04-26 11:30:00,
2013-04-26 07:31:00,65.5,63.1,30.17,ENE,71,1.0,2.0,92,0.00,,,0.00,Wunderground v.1.15,2013-04-26 11:31:00,
2013-04-26 07:35:00,65.8,63.1,30.17,ENE,71,2.0,2.0,91,0.00,,,0.00,Wunderground v.1.15,2013-04-26 11:35:00,
2013-04-26 07:36:00,65.9,63.2,30.17,ENE,70,2.0,2.0,91,0.00,,,0.00,Wunderground v.1.15,2013-04-26 11:36:00,
2013-04-26 07:40:00,66.3,63.6,30.17,ENE,71,2.0,2.0,91,0.00,,,0.00,Wunderground v.1.15,2013-04-26 11:40:00,
2013-04-26 07:41:00,66.4,63.4,30.18,ENE,76,2.0,2.0,90,0.00,,,0.00,Wunderground v.1.15,2013-04-26 11:41:00,
2013-04-26 07:42:00,66.5,63.5,30.18,ENE,76,2.0,3.0,90,0.00,,,0.00,Wunderground v.1.15,2013-04-26 11:42:00,
2013-04-26 07:45:00,66.7,63.7,30.18,East,80,2.0,3.0,90,0.00,,,0.00,Wunderground v.1.15,2013-04-26 11:45:00,
2013-04-26 07:46:00,66.8,63.8,30.18,East,85,2.0,3.0,90,0.00,,,0.00,Wunderground v.1.15,2013-04-26 11:46:00,
2013-04-26 07:47:00,66.8,63.5,30.18,East,86,2.0,3.0,89,0.00,,,0.00,Wunderground v.1.15,2013-04-26 11:47:00,
2013-04-26 07:50:00,66.9,63.6,30.18,ENE,75,2.0,3.0,89,0.00,,,0.00,Wunderground v.1.15,2013-04-26 11:50:00,
2013-04-26 07:51:00,67.0,63.6,30.18,East,95,1.0,3.0,89,0.00,,,0.00,Wunderground v.1.15,2013-04-26 11:51:00,
2013-04-26 07:52:00,67.1,63.7,30.18,East,89,2.0,3.0,89,0.00,,,0.00,Wunderground v.1.15,2013-04-26 11:52:00,
2013-04-26 07:55:00,67.3,63.9,30.18,ENE,76,1.0,3.0,89,0.00,,,0.00,Wunderground v.1.15,2013-04-26 11:55:00,
2013-04-26 07:56:00,67.4,63.7,30.18,ENE,77,1.0,3.0,88,0.00,,,0.00,Wunderground v.1.15,2013-04-26 11:56:00,
2013-04-26 07:57:00,67.5,63.8,30.18,East,82,1.0,3.0,88,0.00,,,0.00,Wunderground v.1.15,2013-04-26 11:57:00,
2013-04-26 08:00:00,67.8,64.1,30.18,ENE,69,3.0,3.0,88,0.00,,,0.00,Wunderground v.1.15,2013-04-26 12:00:00,
2013-04-26 08:01:00,67.8,63.8,30.18,ENE,71,2.0,3.0,87,0.00,,,0.00,Wunderground v.1.15,2013-04-26 12:01:00,
2013-04-26 08:02:00,67.9,63.9,30.18,ENE,64,3.0,3.0,87,0.00,,,0.00,Wunderground v.1.15,2013-04-26 12:02:00,
2013-04-26 08:06:00,68.1,64.1,30.18,ENE,75,3.0,4.0,87,0.00,,,0.00,Wunderground v.1.15,2013-04-26 12:06:00,
2013-04-26 08:07:00,68.2,64.2,30.18,ENE,68,2.0,4.0,87,0.00,,,0.00,Wunderground v.1.15,2013-04-26 12:07:00,
2013-04-26 08:11:00,68.5,64.1,30.18,ENE,75,3.0,4.0,86,0.00,,,0.00,Wunderground v.1.15,2013-04-26 12:11:00,
2013-04-26 08:12:00,68.6,64.2,30.18,ENE,69,3.0,4.0,86,0.00,,,0.00,Wunderground v.1.15,2013-04-26 12:12:00,
2013-04-26 08:13:00,68.6,64.2,30.18,ENE,65,3.0,4.0,86,0.00,,,0.00,Wunderground v.1.15,2013-04-26 12:13:00,
2013-04-26 08:16:00,68.9,64.2,30.18,ENE,75,4.0,5.0,85,0.00,,,0.00,Wunderground v.1.15,2013-04-26 12:16:00,
2013-04-26 08:17:00,69.0,64.3,30.18,ENE,72,4.0,5.0,85,0.00,,,0.00,Wunderground v.1.15,2013-04-26 12:17:00,
2013-04-26 08:18:00,69.0,64.3,30.18,ENE,70,4.0,5.0,85,0.00,,,0.00,Wunderground v.1.15,2013-04-26 12:18:00,
2013-04-26 08:21:00,69.4,64.7,30.18,ENE,75,3.0,3.0,85,0.00,,,0.00,Wunderground v.1.15,2013-04-26 12:21:00,
2013-04-26 08:22:00,69.5,64.5,30.19,East,93,1.0,4.0,84,0.00,,,0.00,Wunderground v.1.15,2013-04-26 12:22:00,
2013-04-26 08:23:00,69.6,64.5,30.18,ESE,105,1.0,4.0,84,0.00,,,0.00,Wunderground v.1.15,2013-04-26 12:23:00,
2013-04-26 08:24:00,69.7,64.6,30.18,ENE,64,4.0,5.0,84,0.00,,,0.00,Wunderground v.1.15,2013-04-26 12:24:00,
2013-04-26 08:26:00,70.0,64.6,30.19,ENE,75,4.0,5.0,83,0.00,,,0.00,Wunderground v.1.15,2013-04-26 12:26:00,
2013-04-26 08:27:00,70.1,64.7,30.19,ENE,63,2.0,5.0,83,0.00,,,0.00,Wunderground v.1.15,2013-04-26 12:27:00,
2013-04-26 08:28:00,70.1,64.7,30.19,ENE,69,2.0,5.0,83,0.00,,,0.00,Wunderground v.1.15,2013-04-26 12:28:00,
2013-04-26 08:29:00,70.3,64.9,30.19,ENE,77,3.0,5.0,83,0.00,,,0.00,Wunderground v.1.15,2013-04-26 12:29:00,
2013-04-26 08:32:00,70.6,64.8,30.19,ENE,72,4.0,4.0,82,0.00,,,0.00,Wunderground v.1.15,2013-04-26 12:32:00,
2013-04-26 08:33:00,70.7,64.9,30.19,ENE,73,4.0,4.0,82,0.00,,,0.00,Wunderground v.1.15,2013-04-26 12:33:00,
2013-04-26 08:34:00,70.8,64.7,30.19,East,79,5.0,5.0,81,0.00,,,0.00,Wunderground v.1.15,2013-04-26 12:34:00,
2013-04-26 08:37:00,71.1,64.6,30.19,ENE,58,5.0,5.0,80,0.00,,,0.00,Wunderground v.1.15,2013-04-26 12:37:00,
2013-04-26 08:38:00,71.1,64.6,30.19,ENE,64,4.0,5.0,80,0.00,,,0.00,Wunderground v.1.15,2013-04-26 12:38:00,
2013-04-26 08:39:00,71.2,64.7,30.19,East,80,2.0,5.0,80,0.00,,,0.00,Wunderground v.1.15,2013-04-26 12:39:00,
2013-04-26 08:42:00,71.4,64.9,30.19,East,82,2.0,4.0,80,0.00,,,0.00,Wunderground v.1.15,2013-04-26 12:42:00,
2013-04-26 08:44:00,71.7,65.2,30.19,ENE,70,3.0,4.0,80,0.00,,,0.00,Wunderground v.1.15,2013-04-26 12:44:00,
2013-04-26 08:45:00,71.8,64.9,30.19,ENE,70,5.0,5.0,79,0.00,,,0.00,Wunderground v.1.15,2013-04-26 12:45:00,
2013-04-26 08:47:00,71.8,64.2,30.19,ENE,75,4.0,7.0,77,0.00,,,0.00,Wunderground v.1.15,2013-04-26 12:47:00,
2013-04-26 08:48:00,71.8,64.2,30.19,ESE,110,4.0,7.0,77,0.00,,,0.00,Wunderground v.1.15,2013-04-26 12:48:00,
2013-04-26 08:49:00,71.9,64.3,30.19,East,96,2.0,7.0,77,0.00,,,0.00,Wunderground v.1.15,2013-04-26 12:49:00,
2013-04-26 08:50:00,71.9,64.3,30.19,ENE,72,2.0,4.0,77,0.00,,,0.00,Wunderground v.1.15,2013-04-26 12:50:00,
2013-04-26 08:52:00,72.1,64.5,30.19,ESE,121,4.0,7.0,77,0.00,,,0.00,Wunderground v.1.15,2013-04-26 12:52:00,
2013-04-26 08:53:00,72.1,64.1,30.20,ENE,75,6.0,7.0,76,0.00,,,0.00,Wunderground v.1.15,2013-04-26 12:53:00,
2013-04-26 08:54:00,72.2,64.2,30.20,NE,56,3.0,7.0,76,0.00,,,0.00,Wunderground v.1.15,2013-04-26 12:54:00,
2013-04-26 08:55:00,72.2,64.2,30.19,ENE,72,6.0,7.0,76,0.00,,,0.00,Wunderground v.1.15,2013-04-26 12:55:00,
2013-04-26 08:57:00,72.2,63.8,30.20,ENE,75,4.0,7.0,75,0.00,,,0.00,Wunderground v.1.15,2013-04-26 12:57:00,
2013-04-26 08:58:00,72.1,64.1,30.20,ENE,77,3.0,7.0,76,0.00,,,0.00,Wunderground v.1.15,2013-04-26 12:58:00,
2013-04-26 08:59:00,72.1,64.1,30.20,East,98,1.0,7.0,76,0.00,,,0.00,Wunderground v.1.15,2013-04-26 12:59:00,
2013-04-26 09:00:00,72.2,64.2,30.20,ESE,105,1.0,4.0,76,0.00,,,0.00,Wunderground v.1.15,2013-04-26 13:00:00,
2013-04-26 09:02:00,72.3,64.3,30.20,East,79,3.0,5.0,76,0.00,,,0.00,Wunderground v.1.15,2013-04-26 13:02:00,
2013-04-26 09:03:00,72.3,64.3,30.20,East,84,4.0,5.0,76,0.00,,,0.00,Wunderground v.1.15,2013-04-26 13:03:00,
2013-04-26 09:04:00,72.4,64.4,30.20,East,82,2.0,5.0,76,0.00,,,0.00,Wunderground v.1.15,2013-04-26 13:04:00,
2013-04-26 09:05:00,72.4,64.4,30.20,ENE,71,2.0,5.0,76,0.00,,,0.00,Wunderground v.1.15,2013-04-26 13:05:00,
2013-04-26 09:08:00,72.6,64.2,30.20,ESE,107,3.0,5.0,75,0.00,,,0.00,Wunderground v.1.15,2013-04-26 13:08:00,
2013-04-26 09:09:00,72.6,64.2,30.20,ENE,75,5.0,5.0,75,0.00,,,0.00,Wunderground v.1.15,2013-04-26 13:09:00,
2013-04-26 09:10:00,72.6,64.2,30.20,ENE,68,5.0,5.0,75,0.00,,,0.00,Wunderground v.1.15,2013-04-26 13:10:00,
2013-04-26 09:13:00,72.6,64.2,30.20,ENE,73,2.0,5.0,75,0.00,,,0.00,Wunderground v.1.15,2013-04-26 13:13:00,
2013-04-26 09:14:00,72.6,64.2,30.21,ENE,58,3.0,5.0,75,0.00,,,0.00,Wunderground v.1.15,2013-04-26 13:14:00,
2013-04-26 09:15:00,72.6,64.2,30.21,East,98,3.0,6.0,75,0.00,,,0.00,Wunderground v.1.15,2013-04-26 13:15:00,
2013-04-26 09:18:00,72.8,64.8,30.21,ESE,115,0.0,6.0,76,0.00,,,0.00,Wunderground v.1.15,2013-04-26 13:18:00,
2013-04-26 09:19:00,73.0,65.0,30.21,ESE,111,1.0,6.0,76,0.00,,,0.00,Wunderground v.1.15,2013-04-26 13:19:00,
2013-04-26 09:20:00,73.2,64.8,30.21,ENE,67,3.0,4.0,75,0.00,,,0.00,Wunderground v.1.15,2013-04-26 13:20:00,
2013-04-26 09:21:00,73.3,64.9,30.21,ENE,78,2.0,4.0,75,0.00,,,0.00,Wunderground v.1.15,2013-04-26 13:21:00,
2013-04-26 09:23:00,73.5,64.7,30.21,SE,134,3.0,6.0,74,0.00,,,0.00,Wunderground v.1.15,2013-04-26 13:23:00,
2013-04-26 09:24:00,73.5,64.7,30.21,ESE,118,3.0,6.0,74,0.00,,,0.00,Wunderground v.1.15,2013-04-26 13:24:00,
2013-04-26 09:26:00,73.6,64.4,30.21,SE,139,3.0,6.0,73,0.00,,,0.00,Wunderground v.1.15,2013-04-26 13:26:00,
2013-04-26 09:28:00,73.7,64.5,30.21,SE,131,3.0,6.0,73,0.00,,,0.00,Wunderground v.1.15,2013-04-26 13:28:00,
2013-04-26 09:29:00,73.6,64.4,30.21,SE,137,4.0,6.0,73,0.00,,,0.00,Wunderground v.1.15,2013-04-26 13:29:00,
2013-04-26 09:31:00,73.7,64.9,30.21,ESE,115,1.0,4.0,74,0.00,,,0.00,Wunderground v.1.15,2013-04-26 13:31:00,
2013-04-26 09:34:00,73.9,64.7,30.21,SE,132,3.0,6.0,73,0.00,,,0.00,Wunderground v.1.15,2013-04-26 13:34:00,
2013-04-26 09:36:00,74.0,64.8,30.21,East,79,3.0,6.0,73,0.00,,,0.00,Wunderground v.1.15,2013-04-26 13:36:00,
2013-04-26 09:39:00,74.0,64.4,30.21,ENE,77,4.0,6.0,72,0.00,,,0.00,Wunderground v.1.15,2013-04-26 13:39:00,
2013-04-26 09:40:00,74.0,64.8,30.21,East,91,2.0,3.0,73,0.00,,,0.00,Wunderground v.1.15,2013-04-26 13:40:00,
2013-04-26 09:41:00,74.0,64.8,30.21,ENE,71,3.0,3.0,73,0.00,,,0.00,Wunderground v.1.15,2013-04-26 13:41:00,
2013-04-26 09:44:00,74.0,64.8,30.21,SE,124,2.0,6.0,73,0.00,,,0.00,Wunderground v.1.15,2013-04-26 13:44:00,
2013-04-26 09:45:00,74.0,64.8,30.21,SE,139,1.0,6.0,73,0.00,,,0.00,Wunderground v.1.15,2013-04-26 13:45:00,
2013-04-26 09:46:00,74.0,64.8,30.21,East,93,5.0,6.0,73,0.00,,,0.00,Wunderground v.1.15,2013-04-26 13:46:00,
2013-04-26 09:49:00,74.1,64.9,30.21,East,91,2.0,6.0,73,0.00,,,0.00,Wunderground v.1.15,2013-04-26 13:49:00,
2013-04-26 09:50:00,74.1,64.9,30.21,ESE,113,3.0,5.0,73,0.00,,,0.00,Wunderground v.1.15,2013-04-26 13:50:00,
2013-04-26 09:51:00,74.2,64.6,30.21,SE,134,2.0,5.0,72,0.00,,,0.00,Wunderground v.1.15,2013-04-26 13:51:00,
2013-04-26 09:54:00,74.5,64.9,30.22,ESE,104,6.0,7.0,72,0.00,,,0.00,Wunderground v.1.15,2013-04-26 13:54:00,
2013-04-26 09:55:00,74.5,64.9,30.21,East,96,4.0,7.0,72,0.00,,,0.00,Wunderground v.1.15,2013-04-26 13:55:00,
2013-04-26 09:56:00,74.5,64.9,30.21,ESE,113,3.0,7.0,72,0.00,,,0.00,Wunderground v.1.15,2013-04-26 13:56:00,
2013-04-26 09:59:00,74.6,65.0,30.22,South,170,0.0,7.0,72,0.00,,,0.00,Wunderground v.1.15,2013-04-26 13:59:00,
2013-04-26 10:00:00,74.8,65.2,30.22,ESE,118,3.0,4.0,72,0.00,,,0.00,Wunderground v.1.15,2013-04-26 14:00:00,
2013-04-26 10:01:00,74.8,65.2,30.21,SE,133,3.0,5.0,72,0.00,,,0.00,Wunderground v.1.15,2013-04-26 14:01:00,
2013-04-26 10:04:00,75.0,65.4,30.21,East,89,3.0,5.0,72,0.00,,,0.00,Wunderground v.1.15,2013-04-26 14:04:00,
2013-04-26 10:06:00,75.0,65.0,30.21,East,96,4.0,5.0,71,0.00,,,0.00,Wunderground v.1.15,2013-04-26 14:06:00,
2013-04-26 10:07:00,74.9,64.9,30.22,ENE,62,5.0,5.0,71,0.00,,,0.00,Wunderground v.1.15,2013-04-26 14:07:00,
2013-04-26 10:09:00,74.8,64.8,30.22,ESE,110,2.0,5.0,71,0.00,,,0.00,Wunderground v.1.15,2013-04-26 14:09:00,
2013-04-26 10:12:00,74.7,65.1,30.22,East,101,3.0,4.0,72,0.00,,,0.00,Wunderground v.1.15,2013-04-26 14:12:00,
2013-04-26 10:14:00,74.6,65.0,30.22,SSE,167,4.0,5.0,72,0.00,,,0.00,Wunderground v.1.15,2013-04-26 14:14:00,
2013-04-26 10:15:00,74.6,65.0,30.22,SSE,165,2.0,5.0,72,0.00,,,0.00,Wunderground v.1.15,2013-04-26 14:15:00,
2013-04-26 10:17:00,74.6,65.0,30.22,East,94,2.0,5.0,72,0.00,,,0.00,Wunderground v.1.15,2013-04-26 14:17:00,
2013-04-26 10:19:00,74.9,64.9,30.22,ESE,106,2.0,3.0,71,0.00,,,0.00,Wunderground v.1.15,2013-04-26 14:19:00,
2013-04-26 10:20:00,74.9,64.9,30.22,ESE,121,4.0,4.0,71,0.00,,,0.00,Wunderground v.1.15,2013-04-26 14:20:00,
2013-04-26 10:22:00,75.1,65.1,30.22,ESE,121,2.0,5.0,71,0.00,,,0.00,Wunderground v.1.15,2013-04-26 14:22:00,
2013-04-26 10:25:00,75.5,65.4,30.22,NNE,23,1.0,6.0,71,0.00,,,0.00,Wunderground v.1.15,2013-04-26 14:25:00,
2013-04-26 10:27:00,75.7,65.6,30.22,NE,51,2.0,6.0,71,0.00,,,0.00,Wunderground v.1.15,2013-04-26 14:27:00,
2013-04-26 10:30:00,76.2,66.1,30.22,ESE,102,4.0,5.0,71,0.00,,,0.00,Wunderground v.1.15,2013-04-26 14:30:00,
2013-04-26 10:32:00,76.1,64.8,30.22,ESE,105,3.0,6.0,68,0.00,,,0.00,Wunderground v.1.15,2013-04-26 14:32:00,
2013-04-26 10:33:00,76.1,64.8,30.22,NE,44,0.0,6.0,68,0.00,,,0.00,Wunderground v.1.15,2013-04-26 14:33:00,
2013-04-26 10:35:00,76.2,64.9,30.22,ESE,113,5.0,6.0,68,0.00,,,0.00,Wunderground v.1.15,2013-04-26 14:35:00,
2013-04-26 10:36:00,76.2,64.4,30.22,East,92,2.0,6.0,67,0.00,,,0.00,Wunderground v.1.15,2013-04-26 14:36:00,
2013-04-26 10:37:00,76.3,64.5,30.22,ESE,121,4.0,6.0,67,0.00,,,0.00,Wunderground v.1.15,2013-04-26 14:37:00,
2013-04-26 10:38:00,76.4,65.1,30.22,ENE,74,3.0,6.0,68,0.00,,,0.00,Wunderground v.1.15,2013-04-26 14:38:00,
2013-04-26 10:40:00,76.5,65.1,30.22,SE,133,2.0,3.0,68,0.00,,,0.00,Wunderground v.1.15,2013-04-26 14:40:00,
2013-04-26 10:41:00,76.6,65.2,30.22,SSE,153,2.0,3.0,68,0.00,,,0.00,Wunderground v.1.15,2013-04-26 14:41:00,
2013-04-26 10:42:00,76.8,65.4,30.22,SW,222,0.0,3.0,68,0.00,,,0.00,Wunderground v.1.15,2013-04-26 14:42:00,
2013-04-26 10:43:00,76.8,65.4,30.22,East,87,1.0,3.0,68,0.00,,,0.00,Wunderground v.1.15,2013-04-26 14:43:00,
2013-04-26 10:45:00,77.1,65.3,30.22,ENE,58,3.0,4.0,67,0.00,,,0.00,Wunderground v.1.15,2013-04-26 14:45:00,
2013-04-26 10:46:00,77.1,65.3,30.22,NE,41,3.0,4.0,67,0.00,,,0.00,Wunderground v.1.15,2013-04-26 14:46:00,
2013-04-26 10:47:00,77.3,65.1,30.22,WSW,238,0.0,4.0,66,0.00,,,0.00,Wunderground v.1.15,2013-04-26 14:47:00,
2013-04-26 10:48:00,77.4,65.6,30.22,NNW,346,1.0,4.0,67,0.00,,,0.00,Wunderground v.1.15,2013-04-26 14:48:00,
2013-04-26 10:50:00,77.7,65.9,30.22,North,4,2.0,3.0,67,0.00,,,0.00,Wunderground v.1.15,2013-04-26 14:50:00,
2013-04-26 10:51:00,77.8,65.5,30.22,ENE,65,2.0,4.0,66,0.00,,,0.00,Wunderground v.1.15,2013-04-26 14:51:00,
2013-04-26 10:53:00,78.0,65.3,30.22,NNW,340,1.0,4.0,65,0.00,,,0.00,Wunderground v.1.15,2013-04-26 14:53:00,
2013-04-26 10:55:00,78.4,65.2,30.22,NE,34,3.0,4.0,64,0.00,,,0.00,Wunderground v.1.15,2013-04-26 14:55:00,
2013-04-26 10:56:00,78.6,64.9,30.22,NE,43,3.0,5.0,63,0.00,,,0.00,Wunderground v.1.15,2013-04-26 14:56:00,
2013-04-26 10:58:00,78.8,64.7,30.22,ENE,62,3.0,5.0,62,0.00,,,0.00,Wunderground v.1.15,2013-04-26 14:58:00,
2013-04-26 11:00:00,78.8,63.3,30.22,NE,41,2.0,5.0,59,0.00,,,0.00,Wunderground v.1.15,2013-04-26 15:00:00,
2013-04-26 11:02:00,78.8,62.8,30.22,NE,45,3.0,6.0,58,0.00,,,0.00,Wunderground v.1.15,2013-04-26 15:02:00,
2013-04-26 11:03:00,78.7,63.6,30.22,NE,56,4.0,6.0,60,0.00,,,0.00,Wunderground v.1.15,2013-04-26 15:03:00,
2013-04-26 11:04:00,78.7,63.6,30.22,NE,56,3.0,6.0,60,0.00,,,0.00,Wunderground v.1.15,2013-04-26 15:04:00,
2013-04-26 11:06:00,78.9,63.8,30.22,NNE,20,2.0,6.0,60,0.00,,,0.00,Wunderground v.1.15,2013-04-26 15:06:00,
2013-04-26 11:07:00,79.0,63.4,30.22,NNW,343,2.0,6.0,59,0.00,,,0.00,Wunderground v.1.15,2013-04-26 15:07:00,
2013-04-26 11:08:00,79.2,64.1,30.22,SE,128,4.0,6.0,60,0.00,,,0.00,Wunderground v.1.15,2013-04-26 15:08:00,
2013-04-26 11:09:00,79.2,64.1,30.22,ESE,108,4.0,6.0,60,0.00,,,0.00,Wunderground v.1.15,2013-04-26 15:09:00,
2013-04-26 11:11:00,79.5,62.4,30.23,ESE,117,4.0,4.0,56,0.00,,,0.00,Wunderground v.1.15,2013-04-26 15:11:00,
2013-04-26 11:12:00,79.5,62.4,30.23,NW,319,4.0,7.0,56,0.00,,,0.00,Wunderground v.1.15,2013-04-26 15:12:00,
2013-04-26 11:13:00,79.6,62.5,30.23,NNE,30,6.0,7.0,56,0.00,,,0.00,Wunderground v.1.15,2013-04-26 15:13:00,
2013-04-26 11:14:00,79.6,62.5,30.23,ENE,67,3.0,7.0,56,0.00,,,0.00,Wunderground v.1.15,2013-04-26 15:14:00,
2013-04-26 11:16:00,79.5,62.4,30.23,ENE,75,6.0,7.0,56,0.00,,,0.00,Wunderground v.1.15,2013-04-26 15:16:00,
2013-04-26 11:17:00,79.4,62.3,30.23,NE,49,2.0,7.0,56,0.00,,,0.00,Wunderground v.1.15,2013-04-26 15:17:00,
2013-04-26 11:19:00,79.3,61.7,30.23,East,85,2.0,7.0,55,0.00,,,0.00,Wunderground v.1.15,2013-04-26 15:19:00,
2013-04-26 11:21:00,79.3,62.7,30.23,East,85,3.0,5.0,57,0.00,,,0.00,Wunderground v.1.15,2013-04-26 15:21:00,
2013-04-26 11:23:00,79.4,62.3,30.23,ENE,62,6.0,8.0,56,0.00,,,0.00,Wunderground v.1.15,2013-04-26 15:23:00,
2013-04-26 11:24:00,79.3,62.7,30.23,East,83,6.0,8.0,57,0.00,,,0.00,Wunderground v.1.15,2013-04-26 15:24:00,
2013-04-26 11:25:00,79.3,62.2,30.22,ENE,61,5.0,10.0,56,0.00,,,0.00,Wunderground v.1.15,2013-04-26 15:25:00,
2013-04-26 11:26:00,79.1,62.6,30.22,East,87,1.0,10.0,57,0.00,,,0.00,Wunderground v.1.15,2013-04-26 15:26:00,
2013-04-26 11:28:00,79.3,62.7,30.23,NE,44,4.0,10.0,57,0.00,,,0.00,Wunderground v.1.15,2013-04-26 15:28:00,
2013-04-26 11:29:00,79.4,62.8,30.23,ESE,108,4.0,10.0,57,0.00,,,0.00,Wunderground v.1.15,2013-04-26 15:29:00,
2013-04-26 11:30:00,79.5,62.4,30.23,East,101,1.0,4.0,56,0.00,,,0.00,Wunderground v.1.15,2013-04-26 15:30:00,
2013-04-26 11:31:00,79.7,62.6,30.22,SSW,205,1.0,4.0,56,0.00,,,0.00,Wunderground v.1.15,2013-04-26 15:31:00,
2013-04-26 11:33:00,79.9,62.8,30.22,NE,45,6.0,10.0,56,0.00,,,0.00,Wunderground v.1.15,2013-04-26 15:33:00,
2013-04-26 11:35:00,80.1,62.0,30.23,NNE,30,4.0,10.0,54,0.00,,,0.00,Wunderground v.1.15,2013-04-26 15:35:00,
2013-04-26 11:36:00,80.1,61.4,30.23,NE,44,4.0,10.0,53,0.00,,,0.00,Wunderground v.1.15,2013-04-26 15:36:00,
2013-04-26 11:38:00,80.2,61.5,30.23,NE,46,2.0,10.0,53,0.00,,,0.00,Wunderground v.1.15,2013-04-26 15:38:00,
2013-04-26 11:40:00,80.5,62.3,30.23,NNE,12,5.0,6.0,54,0.00,,,0.00,Wunderground v.1.15,2013-04-26 15:40:00,
2013-04-26 11:42:00,80.6,62.4,30.23,North,6,2.0,8.0,54,0.00,,,0.00,Wunderground v.1.15,2013-04-26 15:42:00,
2013-04-26 11:43:00,80.7,62.5,30.23,NNE,14,5.0,8.0,54,0.00,,,0.00,Wunderground v.1.15,2013-04-26 15:43:00,
2013-04-26 11:45:00,80.6,61.9,30.23,North,11,4.0,8.0,53,0.00,,,0.00,Wunderground v.1.15,2013-04-26 15:45:00,
2013-04-26 11:47:00,80.5,62.8,30.23,NE,34,3.0,8.0,55,0.00,,,0.00,Wunderground v.1.15,2013-04-26 15:47:00,
2013-04-26 11:48:00,80.5,62.3,30.23,NW,323,0.0,8.0,54,0.00,,,0.00,Wunderground v.1.15,2013-04-26 15:48:00,
2013-04-26 11:50:00,80.7,62.5,30.23,ENE,70,4.0,4.0,54,0.00,,,0.00,Wunderground v.1.15,2013-04-26 15:50:00,
2013-04-26 11:51:00,80.7,62.0,30.22,ENE,72,4.0,5.0,53,0.00,,,0.00,Wunderground v.1.15,2013-04-26 15:51:00,
2013-04-26 11:52:00,80.9,63.2,30.22,NNW,340,4.0,5.0,55,0.00,,,0.00,Wunderground v.1.15,2013-04-26 15:52:00,
2013-04-26 11:53:00,80.9,62.7,30.22,NNW,343,4.0,6.0,54,0.00,,,0.00,Wunderground v.1.15,2013-04-26 15:53:00,
2013-04-26 11:55:00,81.1,63.4,30.22,NE,36,5.0,7.0,55,0.00,,,0.00,Wunderground v.1.15,2013-04-26 15:55:00,
2013-04-26 11:56:00,81.3,63.6,30.22,NNE,30,7.0,7.0,55,0.00,,,0.00,Wunderground v.1.15,2013-04-26 15:56:00,
2013-04-26 11:57:00,81.6,63.3,30.23,North,349,4.0,9.0,54,0.00,,,0.00,Wunderground v.1.15,2013-04-26 15:57:00,
2013-04-26 11:58:00,81.7,63.4,30.22,North,359,4.0,9.0,54,0.00,,,0.00,Wunderground v.1.15,2013-04-26 15:58:00,
2013-04-26 12:00:00,81.7,62.9,30.22,NW,304,4.0,7.0,53,0.00,,,0.00,Wunderground v.1.15,2013-04-26 16:00:00,
2013-04-26 12:01:00,81.8,63.0,30.22,North,3,3.0,7.0,53,0.00,,,0.00,Wunderground v.1.15,2013-04-26 16:01:00,
2013-04-26 12:02:00,81.9,63.6,30.22,NNW,335,2.0,7.0,54,0.00,,,0.00,Wunderground v.1.15,2013-04-26 16:02:00,
2013-04-26 12:03:00,82.0,63.7,30.22,North,359,9.0,9.0,54,0.00,,,0.00,Wunderground v.1.15,2013-04-26 16:03:00,
2013-04-26 12:05:00,81.9,63.1,30.22,North,1,5.0,9.0,53,0.00,,,0.00,Wunderground v.1.15,2013-04-26 16:05:00,
2013-04-26 12:06:00,81.8,63.0,30.22,NNE,13,3.0,9.0,53,0.00,,,0.00,Wunderground v.1.15,2013-04-26 16:06:00,
2013-04-26 12:07:00,81.7,63.4,30.22,NE,56,3.0,9.0,54,0.00,,,0.00,Wunderground v.1.15,2013-04-26 16:07:00,
2013-04-26 12:09:00,81.8,63.5,30.22,NW,309,0.0,9.0,54,0.00,,,0.00,Wunderground v.1.15,2013-04-26 16:09:00,
2013-04-26 12:10:00,81.8,63.5,30.22,SE,134,2.0,4.0,54,0.00,,,0.00,Wunderground v.1.15,2013-04-26 16:10:00,
2013-04-26 12:11:00,81.9,63.6,30.22,ESE,117,0.0,4.0,54,0.00,,,0.00,Wunderground v.1.15,2013-04-26 16:11:00,
2013-04-26 12:12:00,82.1,63.8,30.22,NE,50,8.0,8.0,54,0.00,,,0.00,Wunderground v.1.15,2013-04-26 16:12:00,
2013-04-26 12:14:00,82.3,64.0,30.22,ENE,61,8.0,11.0,54,0.00,,,0.00,Wunderground v.1.15,2013-04-26 16:14:00,
2013-04-26 12:15:00,82.2,64.4,30.22,ENE,77,4.0,11.0,55,0.00,,,0.00,Wunderground v.1.15,2013-04-26 16:15:00,
2013-04-26 12:16:00,82.2,63.9,30.22,ENE,70,5.0,11.0,54,0.00,,,0.00,Wunderground v.1.15,2013-04-26 16:16:00,
2013-04-26 12:17:00,81.9,63.6,30.22,ENE,68,3.0,11.0,54,0.00,,,0.00,Wunderground v.1.15,2013-04-26 16:17:00,
2013-04-26 12:18:00,81.9,63.6,30.22,NNE,26,3.0,11.0,54,0.00,,,0.00,Wunderground v.1.15,2013-04-26 16:18:00,
2013-04-26 12:19:00,81.8,64.1,30.22,North,357,1.0,11.0,55,0.00,,,0.00,Wunderground v.1.15,2013-04-26 16:19:00,
2013-04-26 12:21:00,81.9,64.1,30.22,NNE,32,3.0,6.0,55,0.00,,,0.00,Wunderground v.1.15,2013-04-26 16:21:00,
2013-04-26 12:22:00,82.2,64.4,30.22,NNE,32,4.0,6.0,55,0.00,,,0.00,Wunderground v.1.15,2013-04-26 16:22:00,
2013-04-26 12:23:00,82.3,64.0,30.22,NE,51,1.0,6.0,54,0.00,,,0.00,Wunderground v.1.15,2013-04-26 16:23:00,
2013-04-26 12:24:00,82.5,64.2,30.21,NNW,347,3.0,6.0,54,0.00,,,0.00,Wunderground v.1.15,2013-04-26 16:24:00,
2013-04-26 12:26:00,82.8,65.0,30.21,NE,54,5.0,10.0,55,0.00,,,0.00,Wunderground v.1.15,2013-04-26 16:26:00,
2013-04-26 12:27:00,82.8,63.9,30.21,NE,50,3.0,10.0,53,0.00,,,0.00,Wunderground v.1.15,2013-04-26 16:27:00,
2013-04-26 12:28:00,82.8,63.9,30.21,NE,41,3.0,10.0,53,0.00,,,0.00,Wunderground v.1.15,2013-04-26 16:28:00,
2013-04-26 12:29:00,82.6,63.7,30.21,SE,143,2.0,3.0,53,0.00,,,0.00,Wunderground v.1.15,2013-04-26 16:29:00,
2013-04-26 12:31:00,82.5,64.2,30.21,SE,134,4.0,7.0,54,0.00,,,0.00,Wunderground v.1.15,2013-04-26 16:31:00,
2013-04-26 12:32:00,82.6,64.3,30.21,NE,51,2.0,7.0,54,0.00,,,0.00,Wunderground v.1.15,2013-04-26 16:32:00,
2013-04-26 12:33:00,82.6,64.3,30.21,East,87,3.0,7.0,54,0.00,,,0.00,Wunderground v.1.15,2013-04-26 16:33:00,
2013-04-26 12:35:00,82.7,64.4,30.21,ENE,60,9.0,11.0,54,0.00,,,0.00,Wunderground v.1.15,2013-04-26 16:35:00,
2013-04-26 12:36:00,82.5,63.6,30.21,ENE,77,3.0,11.0,53,0.00,,,0.00,Wunderground v.1.15,2013-04-26 16:36:00,
2013-04-26 12:37:00,82.4,63.5,30.21,ENE,61,2.0,11.0,53,0.00,,,0.00,Wunderground v.1.15,2013-04-26 16:37:00,
2013-04-26 12:38:00,82.5,64.7,30.21,ESE,119,1.0,11.0,55,0.00,,,0.00,Wunderground v.1.15,2013-04-26 16:38:00,
2013-04-26 12:40:00,82.8,66.0,30.21,SE,132,3.0,5.0,57,0.00,,,0.00,Wunderground v.1.15,2013-04-26 16:40:00,
2013-04-26 12:41:00,83.2,67.4,30.21,WSW,251,2.0,5.0,59,0.00,,,0.00,Wunderground v.1.15,2013-04-26 16:41:00,
2013-04-26 12:42:00,83.3,67.0,30.21,WSW,247,4.0,5.0,58,0.00,,,0.00,Wunderground v.1.15,2013-04-26 16:42:00,
2013-04-26 12:43:00,83.2,66.9,30.21,SW,235,5.0,5.0,58,0.00,,,0.00,Wunderground v.1.15,2013-04-26 16:43:00,
2013-04-26 12:45:00,83.0,66.7,30.20,SSW,195,2.0,5.0,58,0.00,,,0.00,Wunderground v.1.15,2013-04-26 16:45:00,
2013-04-26 12:47:00,82.7,66.4,30.20,SW,235,2.0,5.0,58,0.00,,,0.00,Wunderground v.1.15,2013-04-26 16:47:00,
2013-04-26 12:48:00,82.6,67.3,30.20,SW,224,3.0,6.0,60,0.00,,,0.00,Wunderground v.1.15,2013-04-26 16:48:00,
2013-04-26 12:50:00,82.2,67.4,30.20,NW,312,4.0,4.0,61,0.00,,,0.00,Wunderground v.1.15,2013-04-26 16:50:00,
2013-04-26 12:52:00,81.9,67.6,30.20,WNW,291,2.0,6.0,62,0.00,,,0.00,Wunderground v.1.15,2013-04-26 16:52:00,
2013-04-26 12:53:00,81.9,68.1,30.20,NNW,342,3.0,6.0,63,0.00,,,0.00,Wunderground v.1.15,2013-04-26 16:53:00,
2013-04-26 12:55:00,81.9,67.6,30.20,SW,228,2.0,7.0,62,0.00,,,0.00,Wunderground v.1.15,2013-04-26 16:55:00,
2013-04-26 12:57:00,81.9,67.6,30.20,WNW,303,4.0,7.0,62,0.00,,,0.00,Wunderground v.1.15,2013-04-26 16:57:00,
2013-04-26 12:58:00,81.8,67.5,30.20,WNW,302,2.0,7.0,62,0.00,,,0.00,Wunderground v.1.15,2013-04-26 16:58:00,
2013-04-26 13:00:00,81.6,68.2,30.20,WNW,302,3.0,7.0,64,0.00,,,0.00,Wunderground v.1.15,2013-04-26 17:00:00,
2013-04-26 13:02:00,81.6,67.3,30.19,WSW,238,6.0,9.0,62,0.00,,,0.00,Wunderground v.1.15,2013-04-26 17:02:00,
2013-04-26 13:03:00,81.5,67.2,30.19,WSW,240,6.0,9.0,62,0.00,,,0.00,Wunderground v.1.15,2013-04-26 17:03:00,
2013-04-26 13:04:00,81.3,67.0,30.19,West,259,5.0,9.0,62,0.00,,,0.00,Wunderground v.1.15,2013-04-26 17:04:00,
2013-04-26 13:05:00,81.1,66.8,30.19,WSW,254,3.0,9.0,62,0.00,,,0.00,Wunderground v.1.15,2013-04-26 17:05:00,
2013-04-26 13:08:00,81.0,67.2,30.19,WSW,240,5.0,9.0,63,0.00,,,0.00,Wunderground v.1.15,2013-04-26 17:08:00,
2013-04-26 13:09:00,81.0,67.2,30.20,WSW,257,5.0,9.0,63,0.00,,,0.00,Wunderground v.1.15,2013-04-26 17:09:00,
2013-04-26 13:11:00,81.1,67.3,30.19,West,273,4.0,11.0,63,0.00,,,0.00,Wunderground v.1.15,2013-04-26 17:11:00,
2013-04-26 13:13:00,81.4,68.1,30.19,WSW,249,4.0,11.0,64,0.00,,,0.00,Wunderground v.1.15,2013-04-26 17:13:00,
2013-04-26 13:14:00,81.5,67.7,30.19,SW,227,4.0,11.0,63,0.00,,,0.00,Wunderground v.1.15,2013-04-26 17:14:00,
2013-04-26 13:16:00,81.5,67.7,30.19,SW,233,6.0,11.0,63,0.00,,,0.00,Wunderground v.1.15,2013-04-26 17:16:00,
2013-04-26 13:18:00,81.3,67.0,30.19,West,278,5.0,11.0,62,0.00,,,0.00,Wunderground v.1.15,2013-04-26 17:18:00,
2013-04-26 13:19:00,81.2,67.4,30.19,WSW,255,2.0,11.0,63,0.00,,,0.00,Wunderground v.1.15,2013-04-26 17:19:00,
2013-04-26 13:20:00,81.2,66.9,30.19,WNW,291,4.0,5.0,62,0.00,,,0.00,Wunderground v.1.15,2013-04-26 17:20:00,
2013-04-26 13:21:00,81.1,67.3,30.19,WSW,239,6.0,8.0,63,0.00,,,0.00,Wunderground v.1.15,2013-04-26 17:21:00,
2013-04-26 13:23:00,81.1,66.8,30.19,West,264,2.0,8.0,62,0.00,,,0.00,Wunderground v.1.15,2013-04-26 17:23:00,
2013-04-26 13:24:00,81.1,67.3,30.19,West,269,5.0,8.0,63,0.00,,,0.00,Wunderground v.1.15,2013-04-26 17:24:00,
2013-04-26 13:25:00,81.1,66.8,30.19,WSW,255,8.0,8.0,62,0.00,,,0.00,Wunderground v.1.15,2013-04-26 17:25:00,
2013-04-26 13:27:00,81.0,66.8,30.19,West,264,4.0,8.0,62,0.00,,,0.00,Wunderground v.1.15,2013-04-26 17:27:00,
2013-04-26 13:28:00,81.0,67.2,30.19,NW,305,3.0,8.0,63,0.00,,,0.00,Wunderground v.1.15,2013-04-26 17:28:00,
2013-04-26 13:29:00,80.9,67.1,30.19,NW,313,4.0,8.0,63,0.00,,,0.00,Wunderground v.1.15,2013-04-26 17:29:00,
2013-04-26 13:31:00,80.8,67.0,30.19,WNW,288,6.0,8.0,63,0.00,,,0.00,Wunderground v.1.15,2013-04-26 17:31:00,
2013-04-26 13:32:00,80.6,66.8,30.19,WNW,283,4.0,8.0,63,0.00,,,0.00,Wunderground v.1.15,2013-04-26 17:32:00,
2013-04-26 13:34:00,80.5,67.2,30.19,WSW,249,1.0,8.0,64,0.00,,,0.00,Wunderground v.1.15,2013-04-26 17:34:00,
2013-04-26 13:35:00,80.7,67.4,30.19,WSW,257,3.0,8.0,64,0.00,,,0.00,Wunderground v.1.15,2013-04-26 17:35:00,
2013-04-26 13:37:00,80.7,66.9,30.19,West,276,3.0,8.0,63,0.00,,,0.00,Wunderground v.1.15,2013-04-26 17:37:00,
2013-04-26 13:39:00,80.6,66.8,30.19,WNW,283,5.0,10.0,63,0.00,,,0.00,Wunderground v.1.15,2013-04-26 17:39:00,
2013-04-26 13:40:00,80.7,66.9,30.19,WNW,282,3.0,6.0,63,0.00,,,0.00,Wunderground v.1.15,2013-04-26 17:40:00,
2013-04-26 13:42:00,80.7,66.9,30.19,NW,309,6.0,9.0,63,0.00,,,0.00,Wunderground v.1.15,2013-04-26 17:42:00,
2013-04-26 13:44:00,80.8,67.5,30.19,West,276,7.0,9.0,64,0.00,,,0.00,Wunderground v.1.15,2013-04-26 17:44:00,
2013-04-26 13:46:00,80.8,67.5,30.19,West,278,5.0,10.0,64,0.00,,,0.00,Wunderground v.1.15,2013-04-26 17:46:00,
2013-04-26 13:47:00,81.0,68.6,30.19,NW,305,4.0,10.0,66,0.00,,,0.00,Wunderground v.1.15,2013-04-26 17:47:00,
2013-04-26 13:49:00,81.1,67.8,30.19,WNW,285,5.0,10.0,64,0.00,,,0.00,Wunderground v.1.15,2013-04-26 17:49:00,
2013-04-26 13:50:00,81.0,67.2,30.19,West,276,3.0,6.0,63,0.00,,,0.00,Wunderground v.1.15,2013-04-26 17:50:00,
2013-04-26 13:51:00,81.2,68.3,30.19,WSW,239,2.0,6.0,65,0.00,,,0.00,Wunderground v.1.15,2013-04-26 17:51:00,
2013-04-26 13:52:00,81.5,67.7,30.19,WSW,238,4.0,8.0,63,0.00,,,0.00,Wunderground v.1.15,2013-04-26 17:52:00,
2013-04-26 13:54:00,81.5,67.7,30.19,West,264,6.0,8.0,63,0.00,,,0.00,Wunderground v.1.15,2013-04-26 17:54:00,
2013-04-26 13:55:00,81.5,67.2,30.19,West,263,4.0,8.0,62,0.00,,,0.00,Wunderground v.1.15,2013-04-26 17:55:00,
2013-04-26 13:56:00,81.5,67.7,30.19,WSW,246,6.0,8.0,63,0.00,,,0.00,Wunderground v.1.15,2013-04-26 17:56:00,
2013-04-26 13:57:00,81.5,67.7,30.19,WNW,283,2.0,8.0,63,0.00,,,0.00,Wunderground v.1.15,2013-04-26 17:57:00,
2013-04-26 13:59:00,81.6,68.2,30.19,NNW,337,3.0,8.0,64,0.00,,,0.00,Wunderground v.1.15,2013-04-26 17:59:00,
2013-04-26 14:00:00,81.7,67.9,30.19,WNW,283,2.0,6.0,63,0.00,,,0.00,Wunderground v.1.15,2013-04-26 18:00:00,
2013-04-26 14:01:00,81.9,68.5,30.19,WNW,288,2.0,7.0,64,0.00,,,0.00,Wunderground v.1.15,2013-04-26 18:01:00,
2013-04-26 14:03:00,81.8,67.5,30.19,West,271,9.0,9.0,62,0.00,,,0.00,Wunderground v.1.15,2013-04-26 18:03:00,
2013-04-26 14:04:00,81.4,67.6,30.19,NW,307,6.0,9.0,63,0.00,,,0.00,Wunderground v.1.15,2013-04-26 18:04:00,
2013-04-26 14:05:00,81.2,67.4,30.19,West,269,9.0,9.0,63,0.00,,,0.00,Wunderground v.1.15,2013-04-26 18:05:00,
2013-04-26 14:06:00,81.0,67.7,30.18,West,262,5.0,10.0,64,0.00,,,0.00,Wunderground v.1.15,2013-04-26 18:06:00,
2013-04-26 14:08:00,80.9,67.1,30.19,West,274,6.0,10.0,63,0.00,,,0.00,Wunderground v.1.15,2013-04-26 18:08:00,
2013-04-26 14:10:00,81.0,67.7,30.18,WNW,296,6.0,7.0,64,0.00,,,0.00,Wunderground v.1.15,2013-04-26 18:10:00,
2013-04-26 14:11:00,81.0,67.7,30.18,WSW,250,5.0,12.0,64,0.00,,,0.00,Wunderground v.1.15,2013-04-26 18:11:00,
2013-04-26 14:13:00,81.1,67.8,30.18,WNW,300,5.0,12.0,64,0.00,,,0.00,Wunderground v.1.15,2013-04-26 18:13:00,
2013-04-26 14:15:00,81.0,67.7,30.19,SW,233,4.0,12.0,64,0.00,,,0.00,Wunderground v.1.15,2013-04-26 18:15:00,
2013-04-26 14:17:00,81.1,67.3,30.19,WSW,245,3.0,12.0,63,0.00,,,0.00,Wunderground v.1.15,2013-04-26 18:17:00,
2013-04-26 14:18:00,81.0,67.2,30.19,WNW,298,6.0,12.0,63,0.00,,,0.00,Wunderground v.1.15,2013-04-26 18:18:00,
2013-04-26 14:20:00,80.5,67.2,30.19,West,277,5.0,8.0,64,0.00,,,0.00,Wunderground v.1.15,2013-04-26 18:20:00,
2013-04-26 14:21:00,80.5,67.2,30.18,WNW,288,6.0,8.0,64,0.00,,,0.00,Wunderground v.1.15,2013-04-26 18:21:00,
2013-04-26 14:22:00,80.3,67.5,30.18,West,273,8.0,8.0,65,0.00,,,0.00,Wunderground v.1.15,2013-04-26 18:22:00,
2013-04-26 14:23:00,80.1,67.3,30.18,West,271,8.0,11.0,65,0.00,,,0.00,Wunderground v.1.15,2013-04-26 18:23:00,
2013-04-26 14:25:00,79.7,67.3,30.18,WNW,302,6.0,11.0,66,0.00,,,0.00,Wunderground v.1.15,2013-04-26 18:25:00,
2013-04-26 14:26:00,79.7,67.3,30.18,West,276,4.0,11.0,66,0.00,,,0.00,Wunderground v.1.15,2013-04-26 18:26:00,
2013-04-26 14:27:00,79.7,67.8,30.18,West,259,3.0,11.0,67,0.00,,,0.00,Wunderground v.1.15,2013-04-26 18:27:00,
2013-04-26 14:28:00,79.8,68.3,30.19,West,259,6.0,11.0,68,0.00,,,0.00,Wunderground v.1.15,2013-04-26 18:28:00,
2013-04-26 14:31:00,80.0,68.1,30.18,West,265,2.0,6.0,67,0.00,,,0.00,Wunderground v.1.15,2013-04-26 18:31:00,
2013-04-26 14:32:00,80.1,67.7,30.18,WNW,301,5.0,6.0,66,0.00,,,0.00,Wunderground v.1.15,2013-04-26 18:32:00,
2013-04-26 14:34:00,79.9,67.5,30.19,WSW,246,6.0,9.0,66,0.00,,,0.00,Wunderground v.1.15,2013-04-26 18:34:00,
2013-04-26 14:36:00,79.7,68.2,30.19,West,267,10.0,11.0,68,0.00,,,0.00,Wunderground v.1.15,2013-04-26 18:36:00,
2013-04-26 14:37:00,79.6,68.1,30.19,West,259,3.0,11.0,68,0.00,,,0.00,Wunderground v.1.15,2013-04-26 18:37:00,
2013-04-26 14:38:00,79.6,68.1,30.19,West,268,7.0,11.0,68,0.00,,,0.00,Wunderground v.1.15,2013-04-26 18:38:00,
2013-04-26 14:39:00,79.6,68.1,30.19,West,276,4.0,11.0,68,0.00,,,0.00,Wunderground v.1.15,2013-04-26 18:39:00,
2013-04-26 14:41:00,79.7,68.6,30.19,West,270,6.0,12.0,69,0.00,,,0.00,Wunderground v.1.15,2013-04-26 18:41:00,
2013-04-26 14:42:00,79.7,68.6,30.19,SW,236,7.0,12.0,69,0.00,,,0.00,Wunderground v.1.15,2013-04-26 18:42:00,
2013-04-26 14:44:00,79.6,68.5,30.19,WNW,297,3.0,12.0,69,0.00,,,0.00,Wunderground v.1.15,2013-04-26 18:44:00,
2013-04-26 14:46:00,79.6,68.1,30.19,WSW,241,5.0,12.0,68,0.00,,,0.00,Wunderground v.1.15,2013-04-26 18:46:00,
2013-04-26 14:47:00,79.5,68.4,30.19,West,259,8.0,12.0,69,0.00,,,0.00,Wunderground v.1.15,2013-04-26 18:47:00,
2013-04-26 14:48:00,79.2,68.1,30.19,West,270,4.0,12.0,69,0.00,,,0.00,Wunderground v.1.15,2013-04-26 18:48:00,
2013-04-26 14:49:00,79.1,68.1,30.19,WSW,242,4.0,12.0,69,0.00,,,0.00,Wunderground v.1.15,2013-04-26 18:49:00,
2013-04-26 14:51:00,79.2,68.6,30.19,WNW,287,8.0,9.0,70,0.00,,,0.00,Wunderground v.1.15,2013-04-26 18:51:00,
2013-04-26 14:52:00,79.2,68.1,30.18,NW,304,7.0,10.0,69,0.00,,,0.00,Wunderground v.1.15,2013-04-26 18:52:00,
2013-04-26 14:54:00,79.3,67.8,30.18,West,267,9.0,10.0,68,0.00,,,0.00,Wunderground v.1.15,2013-04-26 18:54:00,
2013-04-26 14:56:00,79.0,68.0,30.18,West,279,7.0,11.0,69,0.00,,,0.00,Wunderground v.1.15,2013-04-26 18:56:00,
2013-04-26 14:58:00,78.9,68.3,30.18,West,270,10.0,12.0,70,0.00,,,0.00,Wunderground v.1.15,2013-04-26 18:58:00,
2013-04-26 14:59:00,78.6,67.6,30.18,West,262,6.0,15.0,69,0.00,,,0.00,Wunderground v.1.15,2013-04-26 18:59:00,
2013-04-26 15:00:00,78.6,68.0,30.18,WNW,283,6.0,7.0,70,0.00,,,0.00,Wunderground v.1.15,2013-04-26 19:00:00,
2013-04-26 15:01:00,78.6,68.0,30.18,West,269,10.0,10.0,70,0.00,,,0.00,Wunderground v.1.15,2013-04-26 19:01:00,
2013-04-26 15:02:00,78.6,67.6,30.18,WNW,288,8.0,10.0,69,0.00,,,0.00,Wunderground v.1.15,2013-04-26 19:02:00,
2013-04-26 15:03:00,78.6,67.6,30.18,NW,320,2.0,10.0,69,0.00,,,0.00,Wunderground v.1.15,2013-04-26 19:03:00,
2013-04-26 15:04:00,78.9,67.9,30.18,WSW,253,12.0,12.0,69,0.00,,,0.00,Wunderground v.1.15,2013-04-26 19:04:00,
2013-04-26 15:05:00,78.8,67.3,30.18,West,278,8.0,12.0,68,0.00,,,0.00,Wunderground v.1.15,2013-04-26 19:05:00,
2013-04-26 15:06:00,78.7,67.2,30.18,WNW,290,11.0,12.0,68,0.00,,,0.00,Wunderground v.1.15,2013-04-26 19:06:00,
2013-04-26 15:07:00,78.6,67.2,30.18,WNW,288,8.0,12.0,68,0.00,,,0.00,Wunderground v.1.15,2013-04-26 19:07:00,
2013-04-26 15:08:00,78.6,67.2,30.18,WSW,254,9.0,12.0,68,0.00,,,0.00,Wunderground v.1.15,2013-04-26 19:08:00,
2013-04-26 15:09:00,78.6,67.2,30.18,West,264,5.0,7.0,68,0.00,,,0.00,Wunderground v.1.15,2013-04-26 19:09:00,
2013-04-26 15:10:00,78.7,67.7,30.18,NW,309,10.0,13.0,69,0.00,,,0.00,Wunderground v.1.15,2013-04-26 19:10:00,
2013-04-26 15:12:00,78.7,67.2,30.18,WNW,294,7.0,13.0,68,0.00,,,0.00,Wunderground v.1.15,2013-04-26 19:12:00,
2013-04-26 15:13:00,78.7,67.7,30.18,West,260,7.0,13.0,69,0.00,,,0.00,Wunderground v.1.15,2013-04-26 19:13:00,
2013-04-26 15:15:00,78.8,67.3,30.18,WSW,239,8.0,13.0,68,0.00,,,0.00,Wunderground v.1.15,2013-04-26 19:15:00,
2013-04-26 15:17:00,78.9,67.9,30.18,West,267,4.0,13.0,69,0.00,,,0.00,Wunderground v.1.15,2013-04-26 19:17:00,
2013-04-26 15:19:00,79.3,67.8,30.17,SW,228,4.0,13.0,68,0.00,,,0.00,Wunderground v.1.15,2013-04-26 19:19:00,
2013-04-26 15:20:00,79.5,67.6,30.17,WNW,290,6.0,6.0,67,0.00,,,0.00,Wunderground v.1.15,2013-04-26 19:20:00,
2013-04-26 15:21:00,79.7,68.2,30.17,West,278,6.0,9.0,68,0.00,,,0.00,Wunderground v.1.15,2013-04-26 19:21:00,
2013-04-26 15:22:00,79.8,67.9,30.17,West,281,7.0,11.0,67,0.00,,,0.00,Wunderground v.1.15,2013-04-26 19:22:00,
2013-04-26 15:23:00,79.9,68.0,30.17,WSW,242,4.0,11.0,67,0.00,,,0.00,Wunderground v.1.15,2013-04-26 19:23:00,
2013-04-26 15:24:00,80.1,68.2,30.17,WNW,291,10.0,11.0,67,0.00,,,0.00,Wunderground v.1.15,2013-04-26 19:24:00,
2013-04-26 15:25:00,80.1,67.7,30.17,NNW,330,3.0,11.0,66,0.00,,,0.00,Wunderground v.1.15,2013-04-26 19:25:00,
2013-04-26 15:26:00,80.1,68.2,30.17,WNW,300,6.0,11.0,67,0.00,,,0.00,Wunderground v.1.15,2013-04-26 19:26:00,
2013-04-26 15:27:00,80.1,68.6,30.17,WNW,289,7.0,11.0,68,0.00,,,0.00,Wunderground v.1.15,2013-04-26 19:27:00,
2013-04-26 15:28:00,80.1,68.2,30.17,West,270,6.0,11.0,67,0.00,,,0.00,Wunderground v.1.15,2013-04-26 19:28:00,
2013-04-26 15:29:00,80.1,67.7,30.17,West,261,9.0,11.0,66,0.00,,,0.00,Wunderground v.1.15,2013-04-26 19:29:00,
2013-04-26 15:30:00,80.1,68.2,30.17,WNW,285,3.0,8.0,67,0.00,,,0.00,Wunderground v.1.15,2013-04-26 19:30:00,
2013-04-26 15:31:00,80.0,68.1,30.17,WNW,298,4.0,12.0,67,0.00,,,0.00,Wunderground v.1.15,2013-04-26 19:31:00,
2013-04-26 15:32:00,79.9,68.4,30.17,WNW,288,3.0,12.0,68,0.00,,,0.00,Wunderground v.1.15,2013-04-26 19:32:00,
2013-04-26 15:33:00,79.8,68.3,30.17,WNW,285,3.0,12.0,68,0.00,,,0.00,Wunderground v.1.15,2013-04-26 19:33:00,
2013-04-26 15:34:00,79.8,68.7,30.17,West,270,6.0,12.0,69,0.00,,,0.00,Wunderground v.1.15,2013-04-26 19:34:00,
2013-04-26 15:35:00,79.9,68.8,30.17,WSW,254,6.0,12.0,69,0.00,,,0.00,Wunderground v.1.15,2013-04-26 19:35:00,
2013-04-26 15:36:00,80.0,68.1,30.17,WSW,257,8.0,12.0,67,0.00,,,0.00,Wunderground v.1.15,2013-04-26 19:36:00,
2013-04-26 15:37:00,80.0,68.1,30.17,SW,226,6.0,12.0,67,0.00,,,0.00,Wunderground v.1.15,2013-04-26 19:37:00,
2013-04-26 15:38:00,80.0,68.5,30.17,SSW,193,6.0,12.0,68,0.00,,,0.00,Wunderground v.1.15,2013-04-26 19:38:00,
2013-04-26 15:39:00,80.1,68.6,30.17,West,263,5.0,12.0,68,0.00,,,0.00,Wunderground v.1.15,2013-04-26 19:39:00,
2013-04-26 15:40:00,80.0,68.5,30.17,West,272,7.0,10.0,68,0.00,,,0.00,Wunderground v.1.15,2013-04-26 19:40:00,
2013-04-26 15:41:00,79.9,68.4,30.17,West,269,5.0,10.0,68,0.00,,,0.00,Wunderground v.1.15,2013-04-26 19:41:00,
2013-04-26 15:43:00,80.0,68.9,30.17,West,264,3.0,10.0,69,0.00,,,0.00,Wunderground v.1.15,2013-04-26 19:43:00,
2013-04-26 15:44:00,80.3,69.2,30.17,WNW,298,6.0,10.0,69,0.00,,,0.00,Wunderground v.1.15,2013-04-26 19:44:00,
2013-04-26 15:45:00,80.3,68.8,30.17,WSW,238,12.0,12.0,68,0.00,,,0.00,Wunderground v.1.15,2013-04-26 19:45:00,
2013-04-26 15:47:00,80.1,68.2,30.16,West,269,8.0,12.0,67,0.00,,,0.00,Wunderground v.1.15,2013-04-26 19:47:00,
2013-04-26 15:48:00,79.8,67.9,30.16,WSW,254,8.0,12.0,67,0.00,,,0.00,Wunderground v.1.15,2013-04-26 19:48:00,
2013-04-26 15:50:00,79.5,68.4,30.16,West,267,7.0,8.0,69,0.00,,,0.00,Wunderground v.1.15,2013-04-26 19:50:00,
2013-04-26 15:51:00,79.5,68.4,30.16,WNW,289,8.0,13.0,69,0.00,,,0.00,Wunderground v.1.15,2013-04-26 19:51:00,
2013-04-26 15:52:00,79.4,68.3,30.16,West,273,4.0,13.0,69,0.00,,,0.00,Wunderground v.1.15,2013-04-26 19:52:00,
2013-04-26 15:53:00,79.4,68.3,30.16,WNW,290,7.0,13.0,69,0.00,,,0.00,Wunderground v.1.15,2013-04-26 19:53:00,
2013-04-26 15:55:00,79.2,68.1,30.16,West,263,10.0,13.0,69,0.00,,,0.00,Wunderground v.1.15,2013-04-26 19:55:00,
2013-04-26 15:56:00,79.2,68.1,30.16,WSW,256,9.0,13.0,69,0.00,,,0.00,Wunderground v.1.15,2013-04-26 19:56:00,
2013-04-26 15:57:00,79.2,68.1,30.16,West,271,5.0,13.0,69,0.00,,,0.00,Wunderground v.1.15,2013-04-26 19:57:00,
2013-04-26 15:58:00,79.1,68.1,30.16,West,265,6.0,13.0,69,0.00,,,0.00,Wunderground v.1.15,2013-04-26 19:58:00,
2013-04-26 15:59:00,79.1,68.1,30.16,WNW,295,9.0,13.0,69,0.00,,,0.00,Wunderground v.1.15,2013-04-26 19:59:00,
2013-04-26 16:00:00,79.2,68.6,30.16,WNW,285,4.0,10.0,70,0.00,,,0.00,Wunderground v.1.15,2013-04-26 20:00:00,
2013-04-26 16:01:00,79.2,68.6,30.16,WSW,257,2.0,10.0,70,0.00,,,0.00,Wunderground v.1.15,2013-04-26 20:01:00,
2013-04-26 16:03:00,79.2,68.6,30.16,West,263,5.0,12.0,70,0.00,,,0.00,Wunderground v.1.15,2013-04-26 20:03:00,
2013-04-26 16:04:00,79.2,68.1,30.16,West,274,3.0,12.0,69,0.00,,,0.00,Wunderground v.1.15,2013-04-26 20:04:00,
2013-04-26 16:06:00,79.0,68.8,30.16,West,264,5.0,12.0,71,0.00,,,0.00,Wunderground v.1.15,2013-04-26 20:06:00,
2013-04-26 16:08:00,79.0,68.8,30.16,West,280,8.0,12.0,71,0.00,,,0.00,Wunderground v.1.15,2013-04-26 20:08:00,
2013-04-26 16:09:00,79.0,68.8,30.16,WNW,285,9.0,12.0,71,0.00,,,0.00,Wunderground v.1.15,2013-04-26 20:09:00,
2013-04-26 16:11:00,79.2,69.0,30.15,NNW,336,3.0,6.0,71,0.00,,,0.00,Wunderground v.1.15,2013-04-26 20:11:00,
2013-04-26 16:12:00,79.4,69.2,30.15,West,271,6.0,6.0,71,0.00,,,0.00,Wunderground v.1.15,2013-04-26 20:12:00,
2013-04-26 16:13:00,79.6,68.1,30.15,WNW,290,5.0,9.0,68,0.00,,,0.00,Wunderground v.1.15,2013-04-26 20:13:00,
2013-04-26 16:14:00,79.6,68.5,30.15,NW,314,3.0,9.0,69,0.00,,,0.00,Wunderground v.1.15,2013-04-26 20:14:00,
2013-04-26 16:16:00,79.9,69.2,30.15,WNW,283,5.0,9.0,70,0.00,,,0.00,Wunderground v.1.15,2013-04-26 20:16:00,
2013-04-26 16:17:00,80.0,68.9,30.15,West,277,6.0,10.0,69,0.00,,,0.00,Wunderground v.1.15,2013-04-26 20:17:00,
2013-04-26 16:18:00,80.0,68.5,30.15,WNW,294,4.0,10.0,68,0.00,,,0.00,Wunderground v.1.15,2013-04-26 20:18:00,
2013-04-26 16:19:00,79.9,68.4,30.15,WSW,257,7.0,10.0,68,0.00,,,0.00,Wunderground v.1.15,2013-04-26 20:19:00,
2013-04-26 16:21:00,79.8,68.3,30.15,West,270,5.0,9.0,68,0.00,,,0.00,Wunderground v.1.15,2013-04-26 20:21:00,
2013-04-26 16:23:00,79.7,68.2,30.15,WNW,290,7.0,10.0,68,0.00,,,0.00,Wunderground v.1.15,2013-04-26 20:23:00,
2013-04-26 16:24:00,79.7,68.6,30.15,NW,304,5.0,10.0,69,0.00,,,0.00,Wunderground v.1.15,2013-04-26 20:24:00,
2013-04-26 16:26:00,79.7,68.2,30.15,NW,309,4.0,10.0,68,0.00,,,0.00,Wunderground v.1.15,2013-04-26 20:26:00,
2013-04-26 16:28:00,79.9,68.8,30.15,WNW,295,5.0,10.0,69,0.00,,,0.00,Wunderground v.1.15,2013-04-26 20:28:00,
2013-04-26 16:29:00,80.0,68.9,30.15,West,261,4.0,10.0,69,0.00,,,0.00,Wunderground v.1.15,2013-04-26 20:29:00,
2013-04-26 16:30:00,80.1,68.6,30.15,WNW,290,5.0,7.0,68,0.00,,,0.00,Wunderground v.1.15,2013-04-26 20:30:00,
2013-04-26 16:31:00,79.9,68.0,30.15,WNW,294,5.0,11.0,67,0.00,,,0.00,Wunderground v.1.15,2013-04-26 20:31:00,
2013-04-26 16:33:00,79.7,69.0,30.15,WSW,252,6.0,11.0,70,0.00,,,0.00,Wunderground v.1.15,2013-04-26 20:33:00,
2013-04-26 16:34:00,79.8,69.1,30.15,WSW,257,6.0,11.0,70,0.00,,,0.00,Wunderground v.1.15,2013-04-26 20:34:00,
2013-04-26 16:35:00,79.8,69.1,30.15,WNW,283,6.0,11.0,70,0.00,,,0.00,Wunderground v.1.15,2013-04-26 20:35:00,
2013-04-26 16:36:00,79.7,69.0,30.15,WNW,285,7.0,11.0,70,0.00,,,0.00,Wunderground v.1.15,2013-04-26 20:36:00,
2013-04-26 16:39:00,79.6,68.5,30.15,West,265,4.0,11.0,69,0.00,,,0.00,Wunderground v.1.15,2013-04-26 20:39:00,
2013-04-26 16:40:00,79.6,68.5,30.15,West,271,9.0,9.0,69,0.00,,,0.00,Wunderground v.1.15,2013-04-26 20:40:00,
2013-04-26 16:41:00,79.6,68.5,30.15,WNW,284,4.0,9.0,69,0.00,,,0.00,Wunderground v.1.15,2013-04-26 20:41:00,
2013-04-26 16:44:00,79.7,69.0,30.14,WNW,296,3.0,10.0,70,0.00,,,0.00,Wunderground v.1.15,2013-04-26 20:44:00,
2013-04-26 16:45:00,79.9,68.8,30.14,West,260,7.0,10.0,69,0.00,,,0.00,Wunderground v.1.15,2013-04-26 20:45:00,
2013-04-26 16:47:00,79.9,68.4,30.15,WSW,252,10.0,11.0,68,0.00,,,0.00,Wunderground v.1.15,2013-04-26 20:47:00,
2013-04-26 16:49:00,79.6,68.5,30.15,West,274,8.0,11.0,69,0.00,,,0.00,Wunderground v.1.15,2013-04-26 20:49:00,
2013-04-26 16:50:00,79.5,68.4,30.15,West,273,10.0,11.0,69,0.00,,,0.00,Wunderground v.1.15,2013-04-26 20:50:00,
2013-04-26 16:52:00,79.4,68.8,30.14,WSW,247,7.0,11.0,70,0.00,,,0.00,Wunderground v.1.15,2013-04-26 20:52:00,
2013-04-26 16:54:00,79.4,69.2,30.14,WSW,257,8.0,11.0,71,0.00,,,0.00,Wunderground v.1.15,2013-04-26 20:54:00,
2013-04-26 16:55:00,79.5,68.9,30.14,SW,222,5.0,11.0,70,0.00,,,0.00,Wunderground v.1.15,2013-04-26 20:55:00,
2013-04-26 16:56:00,79.5,68.9,30.14,WSW,255,6.0,11.0,70,0.00,,,0.00,Wunderground v.1.15,2013-04-26 20:56:00,
2013-04-26 16:57:00,79.6,69.0,30.15,West,280,7.0,11.0,70,0.00,,,0.00,Wunderground v.1.15,2013-04-26 20:57:00,
2013-04-26 17:00:00,79.6,68.5,30.14,West,274,7.0,7.0,69,0.00,,,0.00,Wunderground v.1.15,2013-04-26 21:00:00,
2013-04-26 17:02:00,79.6,68.5,30.14,WSW,257,4.0,10.0,69,0.00,,,0.00,Wunderground v.1.15,2013-04-26 21:02:00,
2013-04-26 17:05:00,79.6,69.0,30.14,WNW,293,4.0,10.0,70,0.00,,,0.00,Wunderground v.1.15,2013-04-26 21:05:00,
2013-04-26 17:07:00,79.7,69.0,30.14,West,267,4.0,10.0,70,0.00,,,0.00,Wunderground v.1.15,2013-04-26 21:07:00,
2013-04-26 17:10:00,79.7,69.0,30.14,WNW,295,4.0,6.0,70,0.00,,,0.00,Wunderground v.1.15,2013-04-26 21:10:00,
2013-04-26 17:12:00,79.8,69.1,30.14,West,277,6.0,6.0,70,0.00,,,0.00,Wunderground v.1.15,2013-04-26 21:12:00,
2013-04-26 17:13:00,79.8,69.1,30.14,West,277,4.0,6.0,70,0.00,,,0.00,Wunderground v.1.15,2013-04-26 21:13:00,
2013-04-26 17:14:00,80.0,69.7,30.14,WNW,292,5.0,6.0,71,0.00,,,0.00,Wunderground v.1.15,2013-04-26 21:14:00,
2013-04-26 17:15:00,80.2,69.1,30.14,WSW,242,3.0,6.0,69,0.00,,,0.00,Wunderground v.1.15,2013-04-26 21:15:00,
2013-04-26 17:17:00,80.2,69.1,30.14,WNW,289,6.0,7.0,69,0.00,,,0.00,Wunderground v.1.15,2013-04-26 21:17:00,
2013-04-26 17:18:00,80.1,68.6,30.14,WNW,289,5.0,8.0,68,0.00,,,0.00,Wunderground v.1.15,2013-04-26 21:18:00,
2013-04-26 17:20:00,80.0,68.9,30.14,WNW,283,3.0,5.0,69,0.00,,,0.00,Wunderground v.1.15,2013-04-26 21:20:00,
2013-04-26 17:21:00,80.0,68.9,30.14,West,276,4.0,7.0,69,0.00,,,0.00,Wunderground v.1.15,2013-04-26 21:21:00,
2013-04-26 17:22:00,80.0,69.3,30.14,WNW,300,6.0,7.0,70,0.00,,,0.00,Wunderground v.1.15,2013-04-26 21:22:00,
2013-04-26 17:23:00,80.1,69.4,30.14,WNW,288,4.0,7.0,70,0.00,,,0.00,Wunderground v.1.15,2013-04-26 21:23:00,
2013-04-26 17:24:00,80.1,69.0,30.13,West,259,3.0,9.0,69,0.00,,,0.00,Wunderground v.1.15,2013-04-26 21:24:00,
2013-04-26 17:25:00,80.0,68.9,30.14,West,277,4.0,9.0,69,0.00,,,0.00,Wunderground v.1.15,2013-04-26 21:25:00,
2013-04-26 17:26:00,80.1,69.4,30.13,SW,236,6.0,9.0,70,0.00,,,0.00,Wunderground v.1.15,2013-04-26 21:26:00,
2013-04-26 17:27:00,80.1,69.4,30.13,WNW,301,7.0,9.0,70,0.00,,,0.00,Wunderground v.1.15,2013-04-26 21:27:00,
2013-04-26 17:28:00,80.0,68.9,30.14,WNW,298,5.0,9.0,69,0.00,,,0.00,Wunderground v.1.15,2013-04-26 21:28:00,
2013-04-26 17:29:00,79.9,68.8,30.13,West,277,6.0,9.0,69,0.00,,,0.00,Wunderground v.1.15,2013-04-26 21:29:00,
2013-04-26 17:30:00,79.8,68.7,30.13,WSW,255,6.0,6.0,69,0.00,,,0.00,Wunderground v.1.15,2013-04-26 21:30:00,
2013-04-26 17:31:00,79.8,68.7,30.13,WSW,248,4.0,8.0,69,0.00,,,0.00,Wunderground v.1.15,2013-04-26 21:31:00,
2013-04-26 17:32:00,79.9,69.7,30.13,WNW,285,4.0,8.0,71,0.00,,,0.00,Wunderground v.1.15,2013-04-26 21:32:00,
2013-04-26 17:33:00,79.9,68.8,30.13,WNW,285,7.0,9.0,69,0.00,,,0.00,Wunderground v.1.15,2013-04-26 21:33:00,
2013-04-26 17:34:00,79.9,68.8,30.13,West,276,7.0,9.0,69,0.00,,,0.00,Wunderground v.1.15,2013-04-26 21:34:00,
2013-04-26 17:35:00,79.9,68.8,30.13,West,277,4.0,9.0,69,0.00,,,0.00,Wunderground v.1.15,2013-04-26 21:35:00,
2013-04-26 17:36:00,79.9,68.8,30.13,West,265,4.0,9.0,69,0.00,,,0.00,Wunderground v.1.15,2013-04-26 21:36:00,
2013-04-26 17:38:00,79.9,69.2,30.13,West,271,4.0,9.0,70,0.00,,,0.00,Wunderground v.1.15,2013-04-26 21:38:00,
2013-04-26 17:39:00,79.9,69.2,30.13,WNW,295,4.0,10.0,70,0.00,,,0.00,Wunderground v.1.15,2013-04-26 21:39:00,
2013-04-26 17:40:00,79.9,69.2,30.13,WNW,285,7.0,7.0,70,0.00,,,0.00,Wunderground v.1.15,2013-04-26 21:40:00,
2013-04-26 17:41:00,79.9,69.2,30.13,West,277,5.0,8.0,70,0.00,,,0.00,Wunderground v.1.15,2013-04-26 21:41:00,
2013-04-26 17:43:00,79.9,68.8,30.13,West,273,5.0,8.0,69,0.00,,,0.00,Wunderground v.1.15,2013-04-26 21:43:00,
2013-04-26 17:44:00,79.9,69.2,30.13,West,278,5.0,8.0,70,0.00,,,0.00,Wunderground v.1.15,2013-04-26 21:44:00,
2013-04-26 17:45:00,79.9,69.2,30.14,West,274,3.0,8.0,70,0.00,,,0.00,Wunderground v.1.15,2013-04-26 21:45:00,
2013-04-26 17:46:00,79.9,69.2,30.13,WNW,287,8.0,8.0,70,0.00,,,0.00,Wunderground v.1.15,2013-04-26 21:46:00,
2013-04-26 17:48:00,80.0,69.3,30.14,West,266,7.0,11.0,70,0.00,,,0.00,Wunderground v.1.15,2013-04-26 21:48:00,
2013-04-26 17:49:00,80.0,69.3,30.14,West,277,6.0,11.0,70,0.00,,,0.00,Wunderground v.1.15,2013-04-26 21:49:00,
2013-04-26 17:50:00,80.0,69.3,30.14,WSW,254,3.0,6.0,70,0.00,,,0.00,Wunderground v.1.15,2013-04-26 21:50:00,
2013-04-26 17:51:00,80.1,69.8,30.13,West,280,8.0,8.0,71,0.00,,,0.00,Wunderground v.1.15,2013-04-26 21:51:00,
2013-04-26 17:54:00,79.9,69.2,30.13,West,278,4.0,8.0,70,0.00,,,0.00,Wunderground v.1.15,2013-04-26 21:54:00,
2013-04-26 17:55:00,79.9,69.2,30.13,West,265,3.0,8.0,70,0.00,,,0.00,Wunderground v.1.15,2013-04-26 21:55:00,
2013-04-26 17:56:00,79.9,69.2,30.13,WNW,287,5.0,8.0,70,0.00,,,0.00,Wunderground v.1.15,2013-04-26 21:56:00,
2013-04-26 17:59:00,79.6,69.0,30.13,WNW,285,5.0,9.0,70,0.00,,,0.00,Wunderground v.1.15,2013-04-26 21:59:00,
2013-04-26 18:00:00,79.6,69.0,30.13,SW,235,5.0,7.0,70,0.00,,,0.00,Wunderground v.1.15,2013-04-26 22:00:00,
2013-04-26 18:01:00,79.6,69.4,30.13,West,281,2.0,7.0,71,0.00,,,0.00,Wunderground v.1.15,2013-04-26 22:01:00,
2013-04-26 18:02:00,79.7,69.5,30.13,WSW,253,9.0,9.0,71,0.00,,,0.00,Wunderground v.1.15,2013-04-26 22:02:00,
2013-04-26 18:05:00,79.7,69.5,30.13,West,276,1.0,9.0,71,0.00,,,0.00,Wunderground v.1.15,2013-04-26 22:05:00,
2013-04-26 18:06:00,79.7,69.9,30.13,WSW,255,6.0,9.0,72,0.00,,,0.00,Wunderground v.1.15,2013-04-26 22:06:00,
2013-04-26 18:07:00,79.7,69.5,30.13,West,266,3.0,9.0,71,0.00,,,0.00,Wunderground v.1.15,2013-04-26 22:07:00,
2013-04-26 18:10:00,79.8,69.6,30.13,West,280,3.0,5.0,71,0.00,,,0.00,Wunderground v.1.15,2013-04-26 22:10:00,
2013-04-26 18:11:00,79.9,70.1,30.13,WNW,285,6.0,6.0,72,0.00,,,0.00,Wunderground v.1.15,2013-04-26 22:11:00,
2013-04-26 18:12:00,79.9,70.1,30.13,WSW,247,2.0,6.0,72,0.00,,,0.00,Wunderground v.1.15,2013-04-26 22:12:00,
2013-04-26 18:15:00,80.3,70.4,30.13,West,273,6.0,6.0,72,0.00,,,0.00,Wunderground v.1.15,2013-04-26 22:15:00,
2013-04-26 18:16:00,80.4,70.5,30.13,West,274,6.0,7.0,72,0.00,,,0.00,Wunderground v.1.15,2013-04-26 22:16:00,
2013-04-26 18:17:00,80.3,70.0,30.13,West,273,7.0,8.0,71,0.00,,,0.00,Wunderground v.1.15,2013-04-26 22:17:00,
2013-04-26 18:20:00,79.7,70.3,30.14,West,278,5.0,7.0,73,0.00,,,0.00,Wunderground v.1.15,2013-04-26 22:20:00,
2013-04-26 18:21:00,79.7,70.3,30.14,SW,236,10.0,10.0,73,0.00,,,0.00,Wunderground v.1.15,2013-04-26 22:21:00,
2013-04-26 18:22:00,79.7,70.3,30.13,WNW,295,6.0,10.0,73,0.00,,,0.00,Wunderground v.1.15,2013-04-26 22:22:00,
2013-04-26 18:23:00,79.7,70.3,30.13,WNW,283,7.0,10.0,73,0.00,,,0.00,Wunderground v.1.15,2013-04-26 22:23:00,
2013-04-26 18:26:00,79.6,70.6,30.13,West,271,4.0,10.0,74,0.00,,,0.00,Wunderground v.1.15,2013-04-26 22:26:00,
2013-04-26 18:27:00,79.6,70.6,30.13,WNW,288,4.0,10.0,74,0.00,,,0.00,Wunderground v.1.15,2013-04-26 22:27:00,
2013-04-26 18:28:00,79.6,70.6,30.13,West,262,5.0,10.0,74,0.00,,,0.00,Wunderground v.1.15,2013-04-26 22:28:00,
2013-04-26 18:31:00,79.6,70.6,30.13,WNW,282,5.0,9.0,74,0.00,,,0.00,Wunderground v.1.15,2013-04-26 22:31:00,
2013-04-26 18:32:00,79.6,70.6,30.13,West,278,9.0,10.0,74,0.00,,,0.00,Wunderground v.1.15,2013-04-26 22:32:00,
2013-04-26 18:33:00,79.4,70.4,30.13,WNW,296,8.0,10.0,74,0.00,,,0.00,Wunderground v.1.15,2013-04-26 22:33:00,
2013-04-26 18:36:00,79.2,70.6,30.13,WNW,295,2.0,11.0,75,0.00,,,0.00,Wunderground v.1.15,2013-04-26 22:36:00,
2013-04-26 18:37:00,79.2,70.6,30.13,West,273,6.0,11.0,75,0.00,,,0.00,Wunderground v.1.15,2013-04-26 22:37:00,
2013-04-26 18:38:00,79.2,70.6,30.13,West,270,3.0,11.0,75,0.00,,,0.00,Wunderground v.1.15,2013-04-26 22:38:00,
2013-04-26 18:42:00,79.4,70.8,30.13,NNW,329,7.0,9.0,75,0.00,,,0.00,Wunderground v.1.15,2013-04-26 22:42:00,
2013-04-26 18:43:00,79.3,71.1,30.13,West,260,4.0,9.0,76,0.00,,,0.00,Wunderground v.1.15,2013-04-26 22:43:00,
2013-04-26 18:47:00,79.6,71.0,30.13,WNW,292,5.0,9.0,75,0.00,,,0.00,Wunderground v.1.15,2013-04-26 22:47:00,
2013-04-26 18:48:00,79.7,71.1,30.13,West,278,3.0,9.0,75,0.00,,,0.00,Wunderground v.1.15,2013-04-26 22:48:00,
2013-04-26 18:52:00,79.6,71.0,30.13,NW,307,4.0,9.0,75,0.00,,,0.00,Wunderground v.1.15,2013-04-26 22:52:00,
2013-04-26 18:53:00,79.5,70.9,30.13,West,274,6.0,9.0,75,0.00,,,0.00,Wunderground v.1.15,2013-04-26 22:53:00,
2013-04-26 18:54:00,79.5,70.9,30.13,West,277,3.0,9.0,75,0.00,,,0.00,Wunderground v.1.15,2013-04-26 22:54:00,
2013-04-26 18:57:00,79.3,71.1,30.13,West,280,2.0,9.0,76,0.00,,,0.00,Wunderground v.1.15,2013-04-26 22:57:00,
2013-04-26 18:58:00,79.3,71.5,30.13,WNW,302,3.0,9.0,77,0.00,,,0.00,Wunderground v.1.15,2013-04-26 22:58:00,
2013-04-26 18:59:00,79.3,71.5,30.13,West,280,3.0,9.0,77,0.00,,,0.00,Wunderground v.1.15,2013-04-26 22:59:00,
2013-04-26 19:02:00,79.3,71.1,30.13,West,270,4.0,10.0,76,0.00,,,0.00,Wunderground v.1.15,2013-04-26 23:02:00,
2013-04-26 19:03:00,79.4,71.6,30.14,WNW,294,2.0,10.0,77,0.00,,,0.00,Wunderground v.1.15,2013-04-26 23:03:00,
2013-04-26 19:04:00,79.4,71.6,30.14,NW,314,3.0,10.0,77,0.00,,,0.00,Wunderground v.1.15,2013-04-26 23:04:00,
2013-04-26 19:07:00,79.2,71.0,30.14,WSW,245,1.0,10.0,76,0.00,,,0.00,Wunderground v.1.15,2013-04-26 23:07:00,
2013-04-26 19:09:00,79.2,71.0,30.14,NNW,334,7.0,10.0,76,0.00,,,0.00,Wunderground v.1.15,2013-04-26 23:09:00,
2013-04-26 19:13:00,79.0,71.2,30.14,WNW,302,4.0,11.0,77,0.00,,,0.00,Wunderground v.1.15,2013-04-26 23:13:00,
2013-04-26 19:14:00,78.9,71.1,30.14,West,280,5.0,11.0,77,0.00,,,0.00,Wunderground v.1.15,2013-04-26 23:14:00,
2013-04-26 19:15:00,78.9,71.1,30.14,West,280,4.0,11.0,77,0.00,,,0.00,Wunderground v.1.15,2013-04-26 23:15:00,
2013-04-26 19:18:00,78.8,71.0,30.14,SW,236,9.0,11.0,77,0.00,,,0.00,Wunderground v.1.15,2013-04-26 23:18:00,
2013-04-26 19:19:00,78.7,70.9,30.14,WNW,283,3.0,11.0,77,0.00,,,0.00,Wunderground v.1.15,2013-04-26 23:19:00,
2013-04-26 19:20:00,78.7,71.3,30.13,WNW,302,7.0,9.0,78,0.00,,,0.00,Wunderground v.1.15,2013-04-26 23:20:00,
2013-04-26 19:23:00,78.5,71.1,30.14,NW,309,7.0,10.0,78,0.00,,,0.00,Wunderground v.1.15,2013-04-26 23:23:00,
2013-04-26 19:24:00,78.4,71.0,30.14,WNW,294,6.0,10.0,78,0.00,,,0.00,Wunderground v.1.15,2013-04-26 23:24:00,
2013-04-26 19:26:00,78.3,71.2,30.14,WSW,252,4.0,10.0,79,0.00,,,0.00,Wunderground v.1.15,2013-04-26 23:26:00,
2013-04-26 19:28:00,78.3,71.2,30.14,West,281,3.0,10.0,79,0.00,,,0.00,Wunderground v.1.15,2013-04-26 23:28:00,
2013-04-26 19:29:00,78.2,71.2,30.14,NW,309,2.0,10.0,79,0.00,,,0.00,Wunderground v.1.15,2013-04-26 23:29:00,
2013-04-26 19:31:00,78.2,71.2,30.14,WNW,294,5.0,10.0,79,0.00,,,0.00,Wunderground v.1.15,2013-04-26 23:31:00,
2013-04-26 19:33:00,78.1,71.1,30.14,NW,305,5.0,10.0,79,0.00,,,0.00,Wunderground v.1.15,2013-04-26 23:33:00,
2013-04-26 19:34:00,78.1,71.1,30.14,West,276,7.0,10.0,79,0.00,,,0.00,Wunderground v.1.15,2013-04-26 23:34:00,
2013-04-26 19:35:00,78.0,71.0,30.14,WNW,298,7.0,11.0,79,0.00,,,0.00,Wunderground v.1.15,2013-04-26 23:35:00,
2013-04-26 19:36:00,77.9,71.2,30.14,NW,312,6.0,11.0,80,0.00,,,0.00,Wunderground v.1.15,2013-04-26 23:36:00,
2013-04-26 19:38:00,77.7,71.0,30.14,West,281,3.0,11.0,80,0.00,,,0.00,Wunderground v.1.15,2013-04-26 23:38:00,
2013-04-26 19:39:00,77.7,71.0,30.14,WNW,285,4.0,11.0,80,0.00,,,0.00,Wunderground v.1.15,2013-04-26 23:39:00,
2013-04-26 19:40:00,77.7,71.4,30.14,WNW,291,6.0,6.0,81,0.00,,,0.00,Wunderground v.1.15,2013-04-26 23:40:00,
2013-04-26 19:41:00,77.6,71.3,30.14,WNW,291,7.0,9.0,81,0.00,,,0.00,Wunderground v.1.15,2013-04-26 23:41:00,
2013-04-26 19:44:00,77.5,71.2,30.14,NNW,330,2.0,9.0,81,0.00,,,0.00,Wunderground v.1.15,2013-04-26 23:44:00,
2013-04-26 19:45:00,77.6,71.3,30.14,NW,319,2.0,9.0,81,0.00,,,0.00,Wunderground v.1.15,2013-04-26 23:45:00,
2013-04-26 19:46:00,77.5,71.2,30.14,North,360,3.0,9.0,81,0.00,,,0.00,Wunderground v.1.15,2013-04-26 23:46:00,
2013-04-26 19:49:00,77.4,71.1,30.14,NW,307,4.0,10.0,81,0.00,,,0.00,Wunderground v.1.15,2013-04-26 23:49:00,
2013-04-26 19:50:00,77.4,71.1,30.14,WNW,288,5.0,7.0,81,0.00,,,0.00,Wunderground v.1.15,2013-04-26 23:50:00,
2013-04-26 19:51:00,77.3,71.0,30.14,WNW,302,8.0,10.0,81,0.00,,,0.00,Wunderground v.1.15,2013-04-26 23:51:00,
2013-04-26 20:05:00,76.8,70.9,30.14,WNW,285,4.0,8.0,82,0.00,,,0.00,Wunderground v.1.15,2013-04-27 00:05:00,
2013-04-26 20:06:00,76.8,70.9,30.14,WNW,289,3.0,8.0,82,0.00,,,0.00,Wunderground v.1.15,2013-04-27 00:06:00,
2013-04-26 20:10:00,76.7,71.1,30.14,NW,313,8.0,10.0,83,0.00,,,0.00,Wunderground v.1.15,2013-04-27 00:10:00,
2013-04-26 20:11:00,76.7,71.1,30.14,WNW,295,9.0,10.0,83,0.00,,,0.00,Wunderground v.1.15,2013-04-27 00:11:00,
2013-04-26 20:15:00,76.7,71.1,30.15,WNW,302,6.0,10.0,83,0.00,,,0.00,Wunderground v.1.15,2013-04-27 00:15:00,
2013-04-26 20:16:00,76.7,71.1,30.15,WNW,283,5.0,10.0,83,0.00,,,0.00,Wunderground v.1.15,2013-04-27 00:16:00,
2013-04-26 20:21:00,76.6,71.0,30.15,WNW,292,4.0,7.0,83,0.00,,,0.00,Wunderground v.1.15,2013-04-27 00:21:00,
2013-04-26 20:22:00,76.6,71.0,30.15,WNW,285,6.0,7.0,83,0.00,,,0.00,Wunderground v.1.15,2013-04-27 00:22:00,
2013-04-26 20:26:00,76.7,71.5,30.15,WNW,302,4.0,7.0,84,0.00,,,0.00,Wunderground v.1.15,2013-04-27 00:26:00,
2013-04-26 20:27:00,76.7,71.5,30.15,NNW,330,4.0,7.0,84,0.00,,,0.00,Wunderground v.1.15,2013-04-27 00:27:00,
2013-04-26 20:31:00,76.7,71.5,30.15,WNW,291,4.0,5.0,84,0.00,,,0.00,Wunderground v.1.15,2013-04-27 00:31:00,
2013-04-26 20:32:00,76.7,71.5,30.15,WNW,289,4.0,5.0,84,0.00,,,0.00,Wunderground v.1.15,2013-04-27 00:32:00,
2013-04-26 20:36:00,76.6,71.4,30.15,NW,311,5.0,6.0,84,0.00,,,0.00,Wunderground v.1.15,2013-04-27 00:36:00,
2013-04-26 20:37:00,76.6,71.4,30.15,NW,312,9.0,9.0,84,0.00,,,0.00,Wunderground v.1.15,2013-04-27 00:37:00,
2013-04-26 20:41:00,76.6,71.4,30.15,WNW,288,2.0,4.0,84,0.00,,,0.00,Wunderground v.1.15,2013-04-27 00:41:00,
2013-04-26 20:42:00,76.6,71.4,30.15,NNW,328,2.0,6.0,84,0.00,,,0.00,Wunderground v.1.15,2013-04-27 00:42:00,
2013-04-26 20:46:00,76.6,71.4,30.15,West,279,3.0,8.0,84,0.00,,,0.00,Wunderground v.1.15,2013-04-27 00:46:00,
2013-04-26 20:47:00,76.6,71.4,30.16,NW,305,5.0,8.0,84,0.00,,,0.00,Wunderground v.1.15,2013-04-27 00:47:00,
2013-04-26 20:51:00,76.6,71.7,30.16,WSW,255,4.0,4.0,85,0.00,,,0.00,Wunderground v.1.15,2013-04-27 00:51:00,
2013-04-26 20:52:00,76.5,71.7,30.16,NW,314,2.0,4.0,85,0.00,,,0.00,Wunderground v.1.15,2013-04-27 00:52:00,
2013-04-26 20:56:00,76.5,71.7,30.16,NW,307,5.0,7.0,85,0.00,,,0.00,Wunderground v.1.15,2013-04-27 00:56:00,
2013-04-26 20:57:00,76.5,71.7,30.16,NW,314,7.0,9.0,85,0.00,,,0.00,Wunderground v.1.15,2013-04-27 00:57:00,
2013-04-26 20:58:00,76.5,71.7,30.16,NNW,344,5.0,9.0,85,0.00,,,0.00,Wunderground v.1.15,2013-04-27 00:58:00,
2013-04-26 21:01:00,76.4,71.6,30.16,NW,326,2.0,7.0,85,0.00,,,0.00,Wunderground v.1.15,2013-04-27 01:01:00,
2013-04-26 21:02:00,76.5,71.7,30.16,WNW,297,2.0,7.0,85,0.00,,,0.00,Wunderground v.1.15,2013-04-27 01:02:00,
2013-04-26 21:03:00,76.4,71.6,30.16,NW,313,2.0,7.0,85,0.00,,,0.00,Wunderground v.1.15,2013-04-27 01:03:00,
2013-04-26 21:07:00,76.4,71.6,30.16,WNW,303,2.0,7.0,85,0.00,,,0.00,Wunderground v.1.15,2013-04-27 01:07:00,
2013-04-26 21:08:00,76.4,71.6,30.16,NNW,340,3.0,7.0,85,0.00,,,0.00,Wunderground v.1.15,2013-04-27 01:08:00,
2013-04-26 21:09:00,76.4,71.6,30.16,North,352,1.0,7.0,85,0.00,,,0.00,Wunderground v.1.15,2013-04-27 01:09:00,
2013-04-26 21:12:00,76.5,71.7,30.16,NW,317,5.0,6.0,85,0.00,,,0.00,Wunderground v.1.15,2013-04-27 01:12:00,
2013-04-26 21:13:00,76.4,71.6,30.16,WNW,298,3.0,6.0,85,0.00,,,0.00,Wunderground v.1.15,2013-04-27 01:13:00,
2013-04-26 21:14:00,76.4,71.6,30.16,NW,310,3.0,6.0,85,0.00,,,0.00,Wunderground v.1.15,2013-04-27 01:14:00,
2013-04-26 21:17:00,76.5,71.7,30.16,NW,312,3.0,6.0,85,0.00,,,0.00,Wunderground v.1.15,2013-04-27 01:17:00,
2013-04-26 21:18:00,76.5,71.7,30.16,WNW,283,3.0,6.0,85,0.00,,,0.00,Wunderground v.1.15,2013-04-27 01:18:00,
2013-04-26 21:19:00,76.5,71.7,30.16,WNW,283,4.0,7.0,85,0.00,,,0.00,Wunderground v.1.15,2013-04-27 01:19:00,
2013-04-26 21:22:00,76.5,71.7,30.17,NW,322,3.0,6.0,85,0.00,,,0.00,Wunderground v.1.15,2013-04-27 01:22:00,
2013-04-26 21:23:00,76.5,71.7,30.17,NW,321,3.0,6.0,85,0.00,,,0.00,Wunderground v.1.15,2013-04-27 01:23:00,
2013-04-26 21:24:00,76.5,71.7,30.17,NNW,330,3.0,6.0,85,0.00,,,0.00,Wunderground v.1.15,2013-04-27 01:24:00,
2013-04-26 21:25:00,76.6,71.7,30.17,West,281,2.0,6.0,85,0.00,,,0.00,Wunderground v.1.15,2013-04-27 01:25:00,
2013-04-26 21:27:00,76.6,71.7,30.17,WNW,297,5.0,7.0,85,0.00,,,0.00,Wunderground v.1.15,2013-04-27 01:27:00,
2013-04-26 21:28:00,76.6,71.7,30.17,NNW,331,2.0,7.0,85,0.00,,,0.00,Wunderground v.1.15,2013-04-27 01:28:00,
2013-04-26 21:29:00,76.6,71.7,30.17,NNW,334,1.0,7.0,85,0.00,,,0.00,Wunderground v.1.15,2013-04-27 01:29:00,
2013-04-26 21:30:00,76.7,71.8,30.17,NW,321,3.0,3.0,85,0.00,,,0.00,Wunderground v.1.15,2013-04-27 01:30:00,
2013-04-26 21:32:00,76.7,71.8,30.17,NNW,347,2.0,3.0,85,0.00,,,0.00,Wunderground v.1.15,2013-04-27 01:32:00,
2013-04-26 21:34:00,76.7,71.8,30.17,NW,321,0.0,3.0,85,0.00,,,0.00,Wunderground v.1.15,2013-04-27 01:34:00,
2013-04-26 21:35:00,76.8,71.9,30.17,NW,312,3.0,4.0,85,0.00,,,0.00,Wunderground v.1.15,2013-04-27 01:35:00,
2013-04-26 21:38:00,76.8,71.9,30.17,NW,314,1.0,6.0,85,0.00,,,0.00,Wunderground v.1.15,2013-04-27 01:38:00,
2013-04-26 21:39:00,76.8,71.9,30.17,NNW,330,1.0,6.0,85,0.00,,,0.00,Wunderground v.1.15,2013-04-27 01:39:00,
2013-04-26 21:40:00,76.9,72.0,30.17,NW,321,3.0,3.0,85,0.00,,,0.00,Wunderground v.1.15,2013-04-27 01:40:00,
2013-04-26 21:43:00,76.9,72.0,30.18,NW,319,1.0,4.0,85,0.00,,,0.00,Wunderground v.1.15,2013-04-27 01:43:00,
2013-04-26 21:44:00,76.9,72.0,30.18,North,5,1.0,4.0,85,0.00,,,0.00,Wunderground v.1.15,2013-04-27 01:44:00,
2013-04-26 21:45:00,77.0,72.1,30.18,NNW,334,1.0,4.0,85,0.00,,,0.00,Wunderground v.1.15,2013-04-27 01:45:00,
2013-04-26 21:48:00,77.0,72.1,30.18,WNW,300,1.0,4.0,85,0.00,,,0.00,Wunderground v.1.15,2013-04-27 01:48:00,
2013-04-26 21:49:00,77.0,71.8,30.18,WNW,303,0.0,4.0,84,0.00,,,0.00,Wunderground v.1.15,2013-04-27 01:49:00,
2013-04-26 21:50:00,77.0,71.8,30.18,NW,323,2.0,2.0,84,0.00,,,0.00,Wunderground v.1.15,2013-04-27 01:50:00,
2013-04-26 21:53:00,77.0,71.8,30.18,North,351,0.0,4.0,84,0.00,,,0.00,Wunderground v.1.15,2013-04-27 01:53:00,
2013-04-26 21:54:00,77.1,71.9,30.18,NNW,334,1.0,4.0,84,0.00,,,0.00,Wunderground v.1.15,2013-04-27 01:54:00,
2013-04-26 21:55:00,77.1,71.9,30.18,NW,312,2.0,4.0,84,0.00,,,0.00,Wunderground v.1.15,2013-04-27 01:55:00,
2013-04-26 21:58:00,77.1,71.5,30.18,NW,313,1.0,4.0,83,0.00,,,0.00,Wunderground v.1.15,2013-04-27 01:58:00,
2013-04-26 21:59:00,77.1,71.5,30.18,NE,41,3.0,4.0,83,0.00,,,0.00,Wunderground v.1.15,2013-04-27 01:59:00,
2013-04-26 22:00:00,77.1,71.5,30.18,North,11,3.0,3.0,83,0.00,,,0.00,Wunderground v.1.15,2013-04-27 02:00:00,
2013-04-26 22:01:00,77.1,71.5,30.18,North,352,1.0,4.0,83,0.00,,,0.00,Wunderground v.1.15,2013-04-27 02:01:00,
2013-04-26 22:03:00,77.1,71.5,30.18,NNE,29,2.0,4.0,83,0.00,,,0.00,Wunderground v.1.15,2013-04-27 02:03:00,
2013-04-26 22:04:00,77.0,71.4,30.18,NE,36,3.0,4.0,83,0.00,,,0.00,Wunderground v.1.15,2013-04-27 02:04:00,
2013-04-26 22:05:00,77.0,71.4,30.18,NE,34,1.0,4.0,83,0.00,,,0.00,Wunderground v.1.15,2013-04-27 02:05:00,
2013-04-26 22:07:00,77.0,71.4,30.19,NE,45,4.0,6.0,83,0.00,,,0.00,Wunderground v.1.15,2013-04-27 02:07:00,
2013-04-26 22:08:00,77.0,71.4,30.18,North,6,2.0,6.0,83,0.00,,,0.00,Wunderground v.1.15,2013-04-27 02:08:00,
2013-04-26 22:10:00,77.0,71.4,30.19,NE,41,2.0,2.0,83,0.00,,,0.00,Wunderground v.1.15,2013-04-27 02:10:00,
2013-04-26 22:12:00,77.0,71.4,30.19,NE,39,1.0,4.0,83,0.00,,,0.00,Wunderground v.1.15,2013-04-27 02:12:00,
2013-04-26 22:14:00,77.0,71.4,30.19,ENE,65,2.0,4.0,83,0.00,,,0.00,Wunderground v.1.15,2013-04-27 02:14:00,
2013-04-26 22:15:00,77.0,71.4,30.19,ENE,78,1.0,4.0,83,0.00,,,0.00,Wunderground v.1.15,2013-04-27 02:15:00,
2013-04-26 22:16:00,76.9,71.3,30.19,NE,56,3.0,4.0,83,0.00,,,0.00,Wunderground v.1.15,2013-04-27 02:16:00,
2013-04-26 22:17:00,76.9,71.3,30.19,NNE,23,3.0,4.0,83,0.00,,,0.00,Wunderground v.1.15,2013-04-27 02:17:00,
2013-04-26 22:19:00,76.9,71.3,30.19,North,360,3.0,4.0,83,0.00,,,0.00,Wunderground v.1.15,2013-04-27 02:19:00,
2013-04-26 22:20:00,76.9,71.3,30.19,North,349,0.0,2.0,83,0.00,,,0.00,Wunderground v.1.15,2013-04-27 02:20:00,
2013-04-26 22:21:00,76.9,71.3,30.19,North,349,1.0,2.0,83,0.00,,,0.00,Wunderground v.1.15,2013-04-27 02:21:00,
2013-04-26 22:22:00,76.9,71.0,30.19,NW,312,1.0,2.0,82,0.00,,,0.00,Wunderground v.1.15,2013-04-27 02:22:00,
2013-04-26 22:25:00,76.9,71.0,30.19,NE,36,4.0,8.0,82,0.00,,,0.00,Wunderground v.1.15,2013-04-27 02:25:00,
2013-04-26 22:26:00,76.9,70.6,30.19,NNW,337,2.0,8.0,81,0.00,,,0.00,Wunderground v.1.15,2013-04-27 02:26:00,
2013-04-26 22:27:00,77.0,70.7,30.19,NE,34,3.0,8.0,81,0.00,,,0.00,Wunderground v.1.15,2013-04-27 02:27:00,
2013-04-26 22:30:00,77.0,70.7,30.19,NNE,20,4.0,7.0,81,0.00,,,0.00,Wunderground v.1.15,2013-04-27 02:30:00,
2013-04-26 22:31:00,77.1,70.8,30.19,NNE,15,4.0,7.0,81,0.00,,,0.00,Wunderground v.1.15,2013-04-27 02:31:00,
2013-04-26 22:32:00,77.1,70.8,30.19,NNE,13,6.0,7.0,81,0.00,,,0.00,Wunderground v.1.15,2013-04-27 02:32:00,
2013-04-26 22:35:00,77.2,70.5,30.19,NNE,30,2.0,7.0,80,0.00,,,0.00,Wunderground v.1.15,2013-04-27 02:35:00,
2013-04-26 22:36:00,77.2,70.5,30.19,NNE,30,2.0,7.0,80,0.00,,,0.00,Wunderground v.1.15,2013-04-27 02:36:00,
2013-04-26 22:37:00,77.2,70.5,30.19,NNE,32,5.0,7.0,80,0.00,,,0.00,Wunderground v.1.15,2013-04-27 02:37:00,
2013-04-26 22:41:00,77.2,70.5,30.19,NE,49,2.0,4.0,80,0.00,,,0.00,Wunderground v.1.15,2013-04-27 02:41:00,
2013-04-26 22:42:00,77.2,70.5,30.19,NNE,16,4.0,4.0,80,0.00,,,0.00,Wunderground v.1.15,2013-04-27 02:42:00,
2013-04-26 22:43:00,77.2,70.5,30.19,NNE,15,2.0,4.0,80,0.00,,,0.00,Wunderground v.1.15,2013-04-27 02:43:00,
2013-04-26 22:46:00,77.2,70.5,30.19,North,349,2.0,4.0,80,0.00,,,0.00,Wunderground v.1.15,2013-04-27 02:46:00,
2013-04-26 22:47:00,77.2,70.5,30.19,NNE,25,1.0,4.0,80,0.00,,,0.00,Wunderground v.1.15,2013-04-27 02:47:00,
2013-04-26 22:48:00,77.2,70.5,30.19,NNE,30,1.0,4.0,80,0.00,,,0.00,Wunderground v.1.15,2013-04-27 02:48:00,
2013-04-26 22:51:00,77.2,70.5,30.19,North,354,3.0,5.0,80,0.00,,,0.00,Wunderground v.1.15,2013-04-27 02:51:00,
2013-04-26 22:52:00,77.2,70.5,30.19,NNE,15,1.0,5.0,80,0.00,,,0.00,Wunderground v.1.15,2013-04-27 02:52:00,
2013-04-26 22:53:00,77.2,70.5,30.19,NE,47,2.0,5.0,80,0.00,,,0.00,Wunderground v.1.15,2013-04-27 02:53:00,
2013-04-26 22:56:00,77.2,70.5,30.19,ENE,70,1.0,5.0,80,0.00,,,0.00,Wunderground v.1.15,2013-04-27 02:56:00,
2013-04-26 22:57:00,77.2,70.5,30.19,ENE,69,2.0,5.0,80,0.00,,,0.00,Wunderground v.1.15,2013-04-27 02:57:00,
2013-04-26 22:58:00,77.2,70.5,30.19,NNE,19,3.0,5.0,80,0.00,,,0.00,Wunderground v.1.15,2013-04-27 02:58:00,
2013-04-26 23:01:00,77.3,70.6,30.19,NE,44,0.0,4.0,80,0.00,,,0.00,Wunderground v.1.15,2013-04-27 03:01:00,
2013-04-26 23:02:00,77.4,70.7,30.19,NE,37,4.0,4.0,80,0.00,,,0.00,Wunderground v.1.15,2013-04-27 03:02:00,
2013-04-26 23:03:00,77.4,70.4,30.19,NE,36,1.0,4.0,79,0.00,,,0.00,Wunderground v.1.15,2013-04-27 03:03:00,
2013-04-26 23:06:00,77.5,70.5,30.19,North,7,1.0,4.0,79,0.00,,,0.00,Wunderground v.1.15,2013-04-27 03:06:00,
2013-04-26 23:07:00,77.4,70.4,30.19,NNE,33,1.0,4.0,79,0.00,,,0.00,Wunderground v.1.15,2013-04-27 03:07:00,
2013-04-26 23:09:00,77.4,70.4,30.19,NE,40,2.0,4.0,79,0.00,,,0.00,Wunderground v.1.15,2013-04-27 03:09:00,
2013-04-26 23:11:00,77.4,70.4,30.19,NE,39,4.0,4.0,79,0.00,,,0.00,Wunderground v.1.15,2013-04-27 03:11:00,
2013-04-26 23:12:00,77.4,70.4,30.19,NE,49,3.0,5.0,79,0.00,,,0.00,Wunderground v.1.15,2013-04-27 03:12:00,
2013-04-26 23:13:00,77.4,70.0,30.19,ENE,67,2.0,5.0,78,0.00,,,0.00,Wunderground v.1.15,2013-04-27 03:13:00,
2013-04-26 23:14:00,77.5,70.1,30.19,ENE,65,2.0,5.0,78,0.00,,,0.00,Wunderground v.1.15,2013-04-27 03:14:00,
2013-04-26 23:16:00,77.5,70.1,30.20,ENE,58,4.0,5.0,78,0.00,,,0.00,Wunderground v.1.15,2013-04-27 03:16:00,
2013-04-26 23:17:00,77.5,70.1,30.20,NE,41,3.0,5.0,78,0.00,,,0.00,Wunderground v.1.15,2013-04-27 03:17:00,
2013-04-26 23:18:00,77.5,70.1,30.20,ENE,63,5.0,5.0,78,0.00,,,0.00,Wunderground v.1.15,2013-04-27 03:18:00,
2013-04-26 23:19:00,77.5,70.1,30.20,ENE,60,2.0,6.0,78,0.00,,,0.00,Wunderground v.1.15,2013-04-27 03:19:00,
2013-04-26 23:21:00,77.5,70.1,30.19,NE,45,2.0,3.0,78,0.00,,,0.00,Wunderground v.1.15,2013-04-27 03:21:00,
2013-04-26 23:22:00,77.5,70.1,30.19,ENE,77,4.0,4.0,78,0.00,,,0.00,Wunderground v.1.15,2013-04-27 03:22:00,
2013-04-26 23:23:00,77.5,70.1,30.19,ENE,73,2.0,4.0,78,0.00,,,0.00,Wunderground v.1.15,2013-04-27 03:23:00,
2013-04-26 23:24:00,77.5,69.3,30.19,ENE,60,5.0,10.0,76,0.00,,,0.00,Wunderground v.1.15,2013-04-27 03:24:00,
2013-04-26 23:27:00,77.5,69.3,30.20,East,79,4.0,10.0,76,0.00,,,0.00,Wunderground v.1.15,2013-04-27 03:27:00,
2013-04-26 23:28:00,77.5,68.6,30.20,ENE,62,5.0,10.0,74,0.00,,,0.00,Wunderground v.1.15,2013-04-27 03:28:00,
2013-04-26 23:30:00,77.4,68.5,30.20,ENE,68,2.0,3.0,74,0.00,,,0.00,Wunderground v.1.15,2013-04-27 03:30:00,
2013-04-26 23:32:00,77.4,68.9,30.20,ENE,70,2.0,6.0,75,0.00,,,0.00,Wunderground v.1.15,2013-04-27 03:32:00,
2013-04-26 23:33:00,77.2,68.7,30.20,ENE,68,2.0,6.0,75,0.00,,,0.00,Wunderground v.1.15,2013-04-27 03:33:00,
2013-04-26 23:35:00,77.1,68.6,30.20,East,98,1.0,6.0,75,0.00,,,0.00,Wunderground v.1.15,2013-04-27 03:35:00,
2013-04-26 23:37:00,77.0,68.9,30.20,ENE,65,3.0,6.0,76,0.00,,,0.00,Wunderground v.1.15,2013-04-27 03:37:00,
2013-04-26 23:38:00,76.9,68.8,30.20,ENE,77,3.0,6.0,76,0.00,,,0.00,Wunderground v.1.15,2013-04-27 03:38:00,
2013-04-26 23:40:00,76.7,68.6,30.20,East,100,4.0,5.0,76,0.00,,,0.00,Wunderground v.1.15,2013-04-27 03:40:00,
2013-04-26 23:42:00,76.6,68.5,30.20,ENE,63,4.0,6.0,76,0.00,,,0.00,Wunderground v.1.15,2013-04-27 03:42:00,
2013-04-26 23:43:00,76.6,68.5,30.20,ENE,71,4.0,6.0,76,0.00,,,0.00,Wunderground v.1.15,2013-04-27 03:43:00,
2013-04-26 23:44:00,76.6,68.5,30.20,ENE,78,3.0,6.0,76,0.00,,,0.00,Wunderground v.1.15,2013-04-27 03:44:00,
2013-04-26 23:45:00,76.5,68.4,30.20,ENE,75,2.0,7.0,76,0.00,,,0.00,Wunderground v.1.15,2013-04-27 03:45:00,
2013-04-26 23:47:00,76.5,68.4,30.20,East,96,4.0,7.0,76,0.00,,,0.00,Wunderground v.1.15,2013-04-27 03:47:00,
2013-04-26 23:49:00,76.5,68.4,30.20,ESE,118,1.0,7.0,76,0.00,,,0.00,Wunderground v.1.15,2013-04-27 03:49:00,
2013-04-26 23:50:00,76.5,68.4,30.20,ENE,74,3.0,4.0,76,0.00,,,0.00,Wunderground v.1.15,2013-04-27 03:50:00,
2013-04-26 23:52:00,76.4,68.3,30.20,ENE,65,5.0,6.0,76,0.00,,,0.00,Wunderground v.1.15,2013-04-27 03:52:00,
2013-04-26 23:53:00,76.4,67.9,30.20,East,86,5.0,6.0,75,0.00,,,0.00,Wunderground v.1.15,2013-04-27 03:53:00,
2013-04-26 23:54:00,76.4,67.9,30.20,ENE,77,3.0,6.0,75,0.00,,,0.00,Wunderground v.1.15,2013-04-27 03:54:00,
2013-04-26 23:55:00,76.4,67.9,30.20,ENE,78,1.0,6.0,75,0.00,,,0.00,Wunderground v.1.15,2013-04-27 03:55:00,
2013-04-26 23:58:00,76.4,67.9,30.20,ENE,77,3.0,6.0,75,0.00,,,0.00,Wunderground v.1.15,2013-04-27 03:58:00,
2013-04-26 23:59:00,76.4,67.9,30.20,East,85,4.0,7.0,75,0.00,,,0.00,Wunderground v.1.15,2013-04-27 03:59:00,